N2CPW Weather Reports


time (UTC)temp
F
wind
direction
speed
knots
gust
knots
rain 1hr
in
rain 24hr
in
rain mn
in
humidity
%
barometer
mb
20260506192729 67 190 1.7 0.0 0.00 0.00 0.04 77 1008.7
20260506192628 67 250 2.6 0.0 0.00 0.00 0.04 77 1008.7
20260506192531 67 180 2.6 0.0 0.00 0.00 0.04 77 1008.7
20260506192432 67 188 2.6 0.0 0.00 0.00 0.04 77 1008.7
20260506192358 67 211 2.6 0.0 0.00 0.00 0.04 77 1008.7
20260506192234 67 166 3.5 0.0 0.00 0.00 0.04 77 1008.7
20260506192137 67 161 3.5 0.0 0.00 0.00 0.04 77 1008.7
20260506192035 67 165 4.3 0.0 0.00 0.00 0.04 77 1008.7
20260506191936 67 182 4.3 0.0 0.00 0.00 0.04 77 1008.7
20260506191834 67 230 4.3 0.0 0.00 0.00 0.04 77 1008.7
20260506191734 67 224 5.2 0.0 0.00 0.00 0.04 77 1008.7
20260506191636 67 199 4.3 0.0 0.00 0.00 0.04 77 1008.7
20260506191538 67 178 4.3 0.0 0.00 0.00 0.04 77 1008.7
20260506191438 67 201 5.2 0.0 0.00 0.00 0.04 77 1008.7
20260506191339 67 192 4.3 0.0 0.00 0.00 0.04 76 1008.8
20260506191240 67 247 4.3 0.0 0.00 0.00 0.04 76 1008.8
20260506191201 67 236 4.3 0.0 0.00 0.00 0.04 76 1008.8
20260506191026 67 198 4.3 0.0 0.00 0.00 0.04 76 1008.8
20260506190946 67 219 4.3 0.0 0.00 0.00 0.04 76 1008.8
20260506190843 67 243 4.3 0.0 0.00 0.00 0.04 76 1008.8
20260506190726 67 172 4.3 0.0 0.00 0.00 0.04 76 1008.8
20260506190648 67 239 4.3 0.0 0.00 0.00 0.04 76 1008.8
20260506190529 67 191 5.2 0.0 0.00 0.00 0.04 76 1008.8
20260506190426 67 159 6.1 0.0 0.00 0.00 0.04 76 1008.8
20260506190332 67 190 6.1 0.0 0.00 0.00 0.04 76 1008.8
20260506190230 67 188 6.1 0.0 0.00 0.00 0.04 76 1008.8
20260506190132 67 228 6.1 0.0 0.00 0.00 0.04 76 1008.8
20260506190033 67 178 7.0 0.0 0.00 0.00 0.04 76 1008.8
20260506185933 67 199 7.0 0.0 0.00 0.00 0.04 76 1008.8
20260506185835 67 180 7.0 0.0 0.00 0.00 0.04 76 1008.7
20260506185740 67 190 7.0 0.0 0.00 0.00 0.04 76 1008.7
20260506185705 67 193 7.0 0.0 0.00 0.00 0.04 76 1008.7
20260506185526 67 200 6.1 0.0 0.00 0.00 0.04 76 1008.7
20260506185427 67 228 5.2 0.0 0.00 0.00 0.04 76 1008.7
20260506185349 67 237 5.2 0.0 0.00 0.00 0.04 76 1008.7
20260506185249 67 192 5.2 0.0 0.00 0.00 0.04 76 1008.7
20260506185130 67 190 4.3 0.0 0.00 0.00 0.04 76 1008.7
20260506185032 67 202 4.3 0.0 0.00 0.00 0.04 76 1008.7
20260506184937 67 182 5.2 0.0 0.00 0.00 0.04 76 1008.7
20260506184834 67 170 5.2 0.0 0.00 0.00 0.04 76 1008.7
20260506184736 67 200 6.1 0.0 0.00 0.00 0.04 76 1008.7
20260506184655 67 271 7.0 0.0 0.00 0.00 0.04 76 1008.7
20260506184537 67 265 7.0 0.0 0.00 0.00 0.04 76 1008.7
20260506184433 67 241 7.0 0.0 0.00 0.00 0.04 76 1008.7
20260506184338 67 184 7.0 0.0 0.00 0.00 0.04 76 1008.8
20260506184258 67 242 7.0 0.0 0.00 0.00 0.04 76 1008.8
20260506184143 67 199 7.0 0.0 0.00 0.00 0.04 76 1008.8
20260506184106 67 350 7.0 0.0 0.00 0.00 0.04 76 1008.8
20260506183943 67 196 6.1 0.0 0.00 0.00 0.04 76 1008.8
20260506183822 67 192 5.2 0.0 0.00 0.00 0.04 76 1008.8
20260506183746 67 206 5.2 0.0 0.00 0.00 0.04 76 1008.8
20260506183625 67 221 4.3 0.0 0.00 0.00 0.04 77 1008.8
20260506183531 67 189 3.5 0.0 0.00 0.00 0.04 77 1008.8
20260506183432 67 197 3.5 0.0 0.00 0.00 0.04 77 1008.8
20260506183337 67 182 3.5 0.0 0.00 0.00 0.04 77 1008.8
20260506183235 67 202 3.5 0.0 0.00 0.00 0.04 77 1008.8
20260506183137 67 210 3.5 0.0 0.00 0.00 0.04 78 1008.8
20260506183055 67 199 3.5 0.0 0.00 0.00 0.04 78 1008.8
20260506182934 67 177 3.5 0.0 0.00 0.00 0.04 78 1008.8
20260506182855 67 190 3.5 0.0 0.00 0.00 0.04 78 1008.9
20260506182740 66 243 3.5 0.0 0.00 0.00 0.04 78 1008.9
20260506182638 66 181 4.3 0.0 0.00 0.00 0.04 78 1008.9
20260506182540 66 269 4.3 0.0 0.00 0.00 0.04 78 1008.9
20260506182441 66 198 4.3 0.0 0.00 0.00 0.04 78 1008.9
20260506182343 66 199 4.3 0.0 0.00 0.00 0.04 78 1008.9
20260506182241 66 249 4.3 0.0 0.00 0.00 0.04 79 1008.9
20260506182128 66 175 4.3 0.0 0.00 0.00 0.04 79 1008.9
20260506182029 66 220 4.3 0.0 0.00 0.00 0.04 79 1008.9
20260506181930 66 162 4.3 0.0 0.00 0.00 0.04 79 1008.9
20260506181829 66 217 4.3 0.0 0.00 0.00 0.04 79 1008.9
20260506181729 66 186 4.3 0.0 0.00 0.00 0.04 79 1008.9
20260506181627 66 186 4.3 0.0 0.00 0.00 0.04 80 1008.9
20260506181534 66 261 3.5 0.0 0.00 0.00 0.04 80 1008.9
20260506181430 66 197 3.5 0.0 0.00 0.00 0.04 80 1008.9
20260506181332 66 175 3.5 0.0 0.00 0.00 0.04 80 1009.2
20260506181233 66 229 3.5 0.0 0.00 0.00 0.04 81 1009.2
20260506181135 66 263 3.5 0.0 0.00 0.00 0.04 81 1009.2
20260506181033 66 181 3.5 0.0 0.00 0.00 0.04 81 1009.2
20260506180934 66 167 3.5 0.0 0.00 0.00 0.04 81 1009.2
20260506180835 66 189 3.5 0.0 0.00 0.00 0.04 81 1009.2
20260506180736 66 183 3.5 0.0 0.00 0.00 0.04 81 1009.2
20260506180634 66 192 3.5 0.0 0.00 0.00 0.04 81 1009.2
20260506180534 66 172 4.3 0.0 0.00 0.00 0.04 81 1009.2
20260506180451 66 197 3.5 0.0 0.00 0.00 0.04 80 1009.2
20260506180331 66 207 4.3 0.0 0.00 0.00 0.04 80 1009.2
20260506180228 66 207 5.2 0.0 0.00 0.00 0.04 80 1009.2
20260506180134 66 207 4.3 0.0 0.00 0.00 0.04 80 1009.2
20260506180057 66 159 4.3 0.0 0.00 0.00 0.04 79 1009.2
20260506175940 67 240 4.3 0.0 0.00 0.00 0.04 79 1009.2
20260506175901 67 191 5.2 0.0 0.00 0.00 0.04 79 1009.2
20260506175740 67 311 5.2 0.0 0.00 0.00 0.04 78 1009.2
20260506175638 67 165 5.2 0.0 0.00 0.00 0.04 78 1009.2
20260506175540 67 219 5.2 0.0 0.00 0.00 0.04 77 1009.2
20260506175442 67 132 6.1 0.0 0.00 0.00 0.04 77 1009.2
20260506175324 67 178 5.2 0.0 0.00 0.00 0.04 76 1009.2
20260506175246 67 235 5.2 0.0 0.00 0.00 0.04 76 1009.2
20260506175147 67 207 6.1 0.0 0.00 0.00 0.04 76 1009.2
20260506175044 68 217 6.1 0.0 0.00 0.00 0.04 76 1009.2
20260506174945 68 192 6.1 0.0 0.00 0.00 0.04 76 1009.2
20260506174842 68 183 6.1 0.0 0.00 0.00 0.04 76 1009.2
20260506174727 68 175 6.1 0.0 0.00 0.00 0.04 77 1009.2
20260506174646 68 211 7.0 0.0 0.00 0.00 0.04 76 1009.2
20260506174548 68 195 7.0 0.0 0.00 0.00 0.04 76 1009.2
20260506174425 68 198 7.0 0.0 0.00 0.00 0.04 76 1009.2
20260506174330 68 195 6.1 0.0 0.00 0.00 0.04 76 1009.1
20260506174228 68 213 7.0 0.0 0.00 0.00 0.04 76 1009.1
20260506174129 68 213 7.0 0.0 0.00 0.00 0.04 76 1009.1
20260506174056 68 192 7.8 0.0 0.00 0.00 0.04 76 1009.1
20260506173935 68 163 7.0 0.0 0.00 0.00 0.04 75 1009.1
20260506173833 68 239 7.0 0.0 0.00 0.00 0.04 76 1009.1
20260506173734 68 211 6.1 0.0 0.00 0.00 0.04 77 1009.1
20260506173635 68 211 5.2 0.0 0.00 0.00 0.04 78 1009.1
20260506173559 68 202 5.2 0.0 0.00 0.00 0.04 78 1009.1
20260506173434 68 160 4.3 0.0 0.00 0.00 0.04 78 1009.1
20260506173338 68 201 3.5 0.0 0.00 0.00 0.04 78 1009.1
20260506173236 68 191 3.5 0.0 0.00 0.00 0.04 77 1009.1
20260506173138 68 212 2.6 0.0 0.00 0.00 0.04 79 1009.1
20260506173041 68 214 0.9 0.0 0.00 0.00 0.04 79 1009.1
20260506172943 68 182 0.9 0.0 0.00 0.00 0.03 81 1009.1
20260506172840 68 179 0.9 0.0 0.00 0.00 0.03 81 1009.0
20260506172742 68 174 0.9 0.0 0.00 0.00 0.03 81 1009.0
20260506172644 68 197 0.0 0.0 0.00 0.00 0.03 82 1009.0
20260506172545 68 215 0.0 0.0 0.00 0.00 0.03 82 1009.0
20260506172422 67 134 0.0 0.0 0.00 0.00 0.03 82 1009.0
20260506172346 67 143 0.0 0.0 0.00 0.00 0.03 82 1009.0
20260506172224 67 161 0.0 0.0 0.00 0.00 0.03 83 1009.0
20260506172125 67 106 0.0 0.0 0.00 0.00 0.03 83 1009.0
20260506172030 67 164 0.0 0.0 0.00 0.00 0.03 83 1009.0
20260506171931 67 160 0.0 0.0 0.00 0.00 0.03 84 1009.0
20260506171830 67 170 0.0 0.0 0.00 0.00 0.03 83 1009.0
20260506171734 67 170 0.0 0.0 0.00 0.00 0.03 83 1009.0
20260506171636 67 172 0.9 0.0 0.00 0.00 0.03 84 1009.0
20260506171538 67 209 0.9 0.0 0.00 0.00 0.03 83 1009.0
20260506171438 67 158 0.9 0.0 0.00 0.00 0.03 83 1009.0
20260506171341 67 157 0.9 0.0 0.00 0.00 0.03 82 1009.3
20260506171242 67 159 1.7 0.0 0.00 0.00 0.03 82 1009.3
20260506171144 67 181 1.7 0.0 0.00 0.00 0.03 83 1009.3
20260506171043 67 189 1.7 0.0 0.00 0.00 0.03 83 1009.3
20260506170944 67 155 1.7 0.0 0.00 0.00 0.03 83 1009.3
20260506170827 67 159 1.7 0.0 0.00 0.00 0.03 83 1009.3
20260506170728 67 174 1.7 0.0 0.00 0.00 0.03 83 1009.3
20260506170626 67 171 1.7 0.0 0.00 0.00 0.03 83 1009.3
20260506170530 67 170 1.7 0.0 0.00 0.00 0.03 83 1009.3
20260506170426 67 156 1.7 0.0 0.00 0.00 0.03 82 1009.3
20260506170328 67 168 0.9 0.0 0.00 0.00 0.03 83 1009.3
20260506170228 66 186 0.9 0.0 0.00 0.00 0.03 83 1009.3
20260506170158 66 155 0.9 0.0 0.00 0.00 0.03 83 1009.3
20260506170036 66 159 0.9 0.0 0.00 0.00 0.03 83 1009.3
20260506165936 66 231 0.9 0.0 0.00 0.00 0.03 83 1009.4
20260506165857 66 210 0.9 0.0 0.00 0.00 0.03 84 1009.9
20260506165759 66 170 0.9 0.0 0.00 0.00 0.03 85 1009.9
20260506165639 66 170 0.9 0.0 0.00 0.00 0.03 84 1009.9
20260506165601 66 170 0.9 0.0 0.00 0.00 0.03 84 1009.9
20260506165440 66 165 0.9 0.0 0.00 0.00 0.03 84 1009.9
20260506165326 66 164 0.9 0.0 0.00 0.00 0.03 84 1009.9
20260506165228 66 165 0.9 0.0 0.00 0.00 0.03 83 1009.9
20260506165150 66 168 0.9 0.0 0.00 0.00 0.03 83 1009.9
20260506165026 66 168 0.9 0.0 0.00 0.00 0.03 82 1009.9
20260506164927 66 178 0.9 0.0 0.00 0.00 0.03 82 1009.9
20260506164829 66 169 0.0 0.0 0.00 0.00 0.03 82 1009.9
20260506164730 66 177 0.0 0.0 0.00 0.00 0.03 83 1009.9
20260506164654 66 140 0.0 0.0 0.00 0.00 0.03 83 1009.9
20260506164555 66 140 0.0 0.0 0.00 0.00 0.03 83 1009.9
20260506164430 66 139 0.0 0.0 0.00 0.00 0.03 83 1009.9
20260506164351 66 141 0.0 0.0 0.00 0.00 0.03 83 1010.4
20260506164228 66 141 0.0 0.0 0.00 0.00 0.03 83 1010.4
20260506164129 66 140 0.0 0.0 0.00 0.00 0.03 83 1010.4
20260506164028 66 140 0.0 0.0 0.00 0.00 0.03 83 1010.4
20260506163948 66 139 0.0 0.0 0.00 0.00 0.03 82 1010.4
20260506163853 66 140 0.0 0.0 0.00 0.00 0.03 82 1010.4
20260506163758 66 198 0.0 0.0 0.00 0.00 0.03 82 1010.4
20260506163636 66 197 0.0 0.0 0.00 0.00 0.02 82 1010.4
20260506163538 66 197 0.0 0.0 0.00 0.00 0.02 82 1010.4
20260506163438 66 183 0.0 0.0 0.00 0.00 0.02 82 1010.4
20260506163400 66 183 0.0 0.0 0.00 0.00 0.02 82 1010.4
20260506163241 66 182 0.0 0.0 0.00 0.00 0.02 82 1010.4
20260506163143 66 182 0.0 0.0 0.00 0.00 0.02 82 1010.4
20260506163025 66 190 0.0 0.0 0.00 0.00 0.02 82 1010.4
20260506162946 66 190 0.0 0.0 0.00 0.00 0.02 82 1010.4
20260506162827 66 192 0.0 0.0 0.00 0.00 0.02 81 1010.5
20260506162728 66 168 0.0 0.0 0.00 0.00 0.02 81 1010.5
20260506162627 66 167 0.0 0.0 0.00 0.00 0.02 81 1010.5
20260506162549 66 166 0.0 0.0 0.00 0.00 0.02 81 1010.5
20260506162445 66 182 0.0 0.0 0.00 0.00 0.02 81 1010.5
20260506162346 66 181 0.0 0.0 0.00 0.00 0.02 81 1010.5
20260506162229 66 181 0.0 0.0 0.00 0.00 0.02 80 1010.5
20260506162133 66 180 0.0 0.0 0.00 0.00 0.02 80 1010.5
20260506162034 66 181 0.9 0.0 0.00 0.00 0.02 80 1010.5
20260506161934 66 181 0.9 0.0 0.00 0.00 0.02 80 1010.5
20260506161832 66 182 0.9 0.0 0.00 0.00 0.02 80 1010.5
20260506161735 66 182 0.9 0.0 0.00 0.00 0.02 79 1010.5
20260506161637 66 184 1.7 0.0 0.00 0.00 0.02 79 1010.5
20260506161540 66 187 1.7 0.0 0.00 0.00 0.02 79 1010.5
20260506161437 66 187 1.7 0.0 0.00 0.00 0.02 79 1010.5
20260506161338 66 186 1.7 0.0 0.00 0.00 0.02 78 1010.9
20260506161259 66 186 1.7 0.0 0.00 0.00 0.01 79 1010.9
20260506161159 66 189 1.7 0.0 0.00 0.00 0.01 78 1010.9
20260506161039 66 219 1.7 0.0 0.00 0.00 0.01 78 1010.9
20260506161001 66 162 1.7 0.0 0.00 0.00 0.01 77 1010.9
20260506160841 66 188 1.7 0.0 0.00 0.00 0.01 77 1010.9
20260506160743 66 224 1.7 0.0 0.00 0.00 0.01 77 1010.9
20260506160640 66 177 1.7 0.0 0.00 0.00 0.01 76 1010.9
20260506160553 66 203 1.7 0.0 0.00 0.00 0.01 76 1010.9
20260506160434 66 185 1.7 0.0 0.00 0.00 0.01 77 1010.9
20260506160334 66 207 2.6 0.0 0.00 0.00 0.01 76 1010.9
20260506160235 66 210 2.6 0.0 0.00 0.00 0.01 76 1010.9
20260506160141 67 159 3.5 0.0 0.00 0.00 0.01 76 1010.9
20260506160041 67 159 3.5 0.0 0.00 0.00 0.01 75 1010.9
20260506155940 67 186 4.3 0.0 0.00 0.00 0.01 76 1010.9
20260506155902 67 199 4.3 0.0 0.00 0.00 0.01 75 1010.6
20260506155742 67 176 4.3 0.0 0.00 0.00 0.01 75 1010.6
20260506155644 67 186 5.2 0.0 0.00 0.00 0.01 74 1010.6
20260506155605 67 180 5.2 0.0 0.00 0.00 0.01 74 1010.6
20260506155425 67 188 6.1 0.0 0.00 0.00 0.01 73 1010.6
20260506155328 67 200 6.1 0.0 0.00 0.00 0.01 73 1010.6
20260506155225 67 165 5.2 0.0 0.00 0.00 0.01 72 1010.6
20260506155146 68 217 6.1 0.0 0.00 0.00 0.01 72 1010.6
20260506155044 68 172 5.2 0.0 0.00 0.00 0.01 72 1010.6
20260506154945 68 203 5.2 0.0 0.00 0.00 0.01 71 1010.6
20260506154827 68 176 5.2 0.0 0.00 0.00 0.01 70 1010.6
20260506154748 68 182 5.2 0.0 0.00 0.00 0.00 70 1010.6
20260506154626 69 205 5.2 0.0 0.00 0.00 0.00 70 1010.6
20260506154529 69 223 5.2 0.0 0.00 0.00 0.00 69 1010.6
20260506154425 69 137 5.2 0.0 0.00 0.00 0.00 69 1010.6
20260506154345 69 195 4.3 0.0 0.00 0.00 0.00 69 1010.5
20260506154224 69 197 5.2 0.0 0.00 0.00 0.00 68 1010.5
20260506154130 69 205 4.3 0.0 0.00 0.00 0.00 67 1010.5
20260506154048 70 141 4.3 0.0 0.00 0.00 0.00 67 1010.5
20260506153928 70 181 3.5 0.0 0.00 0.00 0.00 67 1010.5
20260506153826 70 176 3.5 0.0 0.00 0.00 0.00 66 1010.5
20260506153748 70 186 3.5 0.0 0.00 0.00 0.00 66 1010.5
20260506153624 70 170 3.5 0.0 0.00 0.00 0.00 65 1010.5
20260506153546 70 245 2.6 0.0 0.00 0.00 0.00 65 1010.5
20260506153423 70 176 2.6 0.0 0.00 0.00 0.00 64 1010.5
20260506153333 70 203 3.5 0.0 0.00 0.00 0.00 65 1010.5
20260506153231 70 252 3.5 0.0 0.00 0.00 0.00 65 1010.5
20260506153133 70 203 3.5 0.0 0.00 0.00 0.00 65 1010.5
20260506153032 70 217 3.5 0.0 0.00 0.00 0.00 65 1010.5
20260506152932 70 189 3.5 0.0 0.00 0.00 0.00 65 1010.5
20260506152833 70 183 3.5 0.0 0.00 0.00 0.00 65 1010.7
20260506152734 70 163 3.5 0.0 0.00 0.00 0.00 65 1010.7
20260506152636 70 176 3.5 0.0 0.00 0.00 0.00 65 1010.7
20260506152542 70 190 3.5 0.0 0.00 0.00 0.00 65 1010.7
20260506152440 70 211 4.3 0.0 0.00 0.00 0.00 65 1010.7
20260506152341 70 196 4.3 0.0 0.00 0.00 0.00 65 1010.7
20260506152242 70 178 3.5 0.0 0.00 0.00 0.00 65 1010.7
20260506152143 70 199 3.5 0.0 0.00 0.00 0.00 66 1010.7
20260506152025 70 281 3.5 0.0 0.00 0.00 0.00 66 1010.7
20260506151946 70 143 3.5 0.0 0.00 0.00 0.00 67 1010.7
20260506151826 70 211 3.5 0.0 0.00 0.00 0.00 66 1010.7
20260506151729 70 164 3.5 0.0 0.00 0.00 0.00 66 1010.7
20260506151627 70 209 3.5 0.0 0.00 0.00 0.00 66 1010.7
20260506151529 70 186 3.5 0.0 0.00 0.00 0.00 65 1010.7
20260506151425 70 232 3.5 0.0 0.00 0.00 0.00 65 1010.7
20260506151354 70 160 3.5 0.0 0.00 0.00 0.00 65 1010.7
20260506151230 70 143 3.5 0.0 0.00 0.00 0.00 65 1010.7
20260506151132 70 208 3.5 0.0 0.00 0.00 0.00 65 1010.7
20260506151030 70 184 4.3 0.0 0.00 0.00 0.00 65 1010.7
20260506150930 70 186 4.3 0.0 0.00 0.00 0.00 64 1010.7
20260506150849 70 172 4.3 0.0 0.00 0.00 0.00 64 1010.7
20260506150729 70 154 4.3 0.0 0.00 0.00 0.00 64 1010.7
20260506150631 70 52 5.2 0.0 0.00 0.00 0.00 64 1010.7
20260506150554 70 184 5.2 0.0 0.00 0.00 0.00 64 1010.7
20260506150430 70 152 5.2 0.0 0.00 0.00 0.00 64 1010.7
20260506150333 70 185 5.2 0.0 0.00 0.00 0.00 64 1010.7
20260506150234 70 195 5.2 0.0 0.00 0.00 0.00 64 1010.7
20260506150135 70 176 5.2 0.0 0.00 0.00 0.00 64 1010.7
20260506150053 70 182 5.2 0.0 0.00 0.00 0.00 64 1010.7
20260506145952 70 213 5.2 0.0 0.00 0.00 0.00 64 1010.7
20260506145836 70 262 6.1 0.0 0.00 0.00 0.00 64 1010.8
20260506145756 70 199 6.1 0.0 0.00 0.00 0.00 64 1010.8
20260506145633 70 202 5.2 0.0 0.00 0.00 0.00 64 1010.8
20260506145535 70 176 6.1 0.0 0.00 0.00 0.00 64 1010.8
20260506145432 70 208 6.1 0.0 0.00 0.00 0.00 64 1010.8
20260506145337 70 216 6.1 0.0 0.00 0.00 0.00 64 1010.8
20260506145259 70 176 6.1 0.0 0.00 0.00 0.00 64 1010.8
20260506145159 70 333 7.0 0.0 0.00 0.00 0.00 64 1010.8
20260506145025 70 255 7.0 0.0 0.00 0.00 0.00 64 1010.8
20260506144925 70 158 7.0 0.0 0.00 0.00 0.00 64 1010.8
20260506144827 70 242 6.1 0.0 0.00 0.00 0.00 64 1010.8
20260506144727 70 143 7.0 0.0 0.00 0.00 0.00 64 1010.8
20260506144626 70 188 7.0 0.0 0.00 0.00 0.00 64 1010.8
20260506144528 70 272 6.1 0.0 0.00 0.00 0.00 64 1010.8
20260506144424 70 195 5.2 0.0 0.00 0.00 0.00 64 1010.8
20260506144329 70 208 5.2 0.0 0.00 0.00 0.00 64 1010.8
20260506144230 70 178 6.1 0.0 0.00 0.00 0.00 63 1010.8
20260506144131 70 209 6.1 0.0 0.00 0.00 0.00 64 1010.8
20260506144030 70 207 5.2 0.0 0.00 0.00 0.00 63 1010.8
20260506143931 70 195 5.2 0.0 0.00 0.00 0.00 63 1010.8
20260506143833 70 176 5.2 0.0 0.00 0.00 0.00 63 1010.8
20260506143754 70 174 5.2 0.0 0.00 0.00 0.00 63 1010.8
20260506143635 70 253 5.2 0.0 0.00 0.00 0.00 63 1010.8
20260506143537 70 173 5.2 0.0 0.00 0.00 0.00 63 1010.8
20260506143458 70 144 6.1 0.0 0.00 0.00 0.00 63 1010.8
20260506143338 70 163 5.2 0.0 0.00 0.00 0.00 63 1010.8
20260506143236 71 188 5.2 0.0 0.00 0.00 0.00 63 1010.8
20260506143137 71 194 4.3 0.0 0.00 0.00 0.00 63 1010.8
20260506143036 71 189 4.3 0.0 0.00 0.00 0.00 63 1010.8
20260506142940 71 163 4.3 0.0 0.00 0.00 0.00 63 1010.8
20260506142839 71 199 5.2 0.0 0.00 0.00 0.00 64 1010.6
20260506142739 71 190 5.2 0.0 0.00 0.00 0.00 64 1010.6
20260506142638 71 199 5.2 0.0 0.00 0.00 0.00 64 1010.6
20260506142540 71 205 5.2 0.0 0.00 0.00 0.00 64 1010.6
20260506142505 71 208 4.3 0.0 0.00 0.00 0.00 63 1010.6
20260506142328 71 172 4.3 0.0 0.00 0.00 0.00 63 1010.6
20260506142247 71 168 5.2 0.0 0.00 0.00 0.00 64 1010.6
20260506142130 70 151 5.2 0.0 0.00 0.00 0.00 64 1010.6
20260506142032 71 238 5.2 0.0 0.00 0.00 0.00 63 1010.6
20260506141932 71 186 5.2 0.0 0.00 0.00 0.00 63 1010.6
20260506141831 71 186 5.2 0.0 0.00 0.00 0.00 63 1010.6
20260506141732 71 211 5.2 0.0 0.00 0.00 0.00 63 1010.6
20260506141633 71 198 4.3 0.0 0.00 0.00 0.00 64 1010.6
20260506141534 71 203 4.3 0.0 0.00 0.00 0.00 64 1010.6
20260506141452 70 188 5.2 0.0 0.00 0.00 0.00 64 1010.6
20260506141335 70 233 5.2 0.0 0.00 0.00 0.00 64 1010.6
20260506141235 70 237 5.2 0.0 0.00 0.00 0.00 64 1010.6
20260506141137 70 161 5.2 0.0 0.00 0.00 0.00 64 1010.6
20260506141055 70 210 5.2 0.0 0.00 0.00 0.00 64 1010.6
20260506140934 70 167 5.2 0.0 0.00 0.00 0.00 64 1010.6
20260506140835 70 202 5.2 0.0 0.00 0.00 0.00 64 1010.6
20260506140737 70 172 5.2 0.0 0.00 0.00 0.00 64 1010.6
20260506140635 70 249 5.2 0.0 0.00 0.00 0.00 64 1010.6
20260506140537 70 200 5.2 0.0 0.00 0.00 0.00 64 1010.6
20260506140436 70 193 5.2 0.0 0.00 0.00 0.00 64 1010.6
20260506140339 70 178 5.2 0.0 0.00 0.00 0.00 65 1010.6
20260506140240 70 188 5.2 0.0 0.00 0.00 0.00 65 1010.6
20260506140142 70 161 5.2 0.0 0.00 0.00 0.00 65 1010.6
20260506140042 70 188 5.2 0.0 0.00 0.00 0.00 65 1010.6
20260506135942 70 170 6.1 0.0 0.00 0.00 0.00 65 1010.6
20260506135839 70 182 6.1 0.0 0.00 0.00 0.00 65 1010.7
20260506135740 70 197 5.2 0.0 0.00 0.00 0.00 64 1010.7
20260506135701 70 262 5.2 0.0 0.00 0.00 0.00 65 1010.7
20260506135526 70 199 5.2 0.0 0.00 0.00 0.00 65 1010.7
20260506135426 70 142 6.1 0.0 0.00 0.00 0.00 65 1010.7
20260506135327 70 177 6.1 0.0 0.00 0.00 0.00 65 1010.7
20260506135229 70 196 6.1 0.0 0.00 0.00 0.00 65 1010.7
20260506135131 70 219 6.1 0.0 0.00 0.00 0.00 65 1010.7
20260506135027 70 230 6.1 0.0 0.00 0.00 0.00 65 1010.7
20260506134928 70 199 6.1 0.0 0.00 0.00 0.00 65 1010.7
20260506134831 70 213 6.1 0.0 0.00 0.00 0.00 65 1010.7
20260506134753 70 163 6.1 0.0 0.00 0.00 0.00 65 1010.7
20260506134628 70 172 6.1 0.0 0.00 0.00 0.00 65 1010.7
20260506134551 70 178 6.1 0.0 0.00 0.00 0.00 65 1010.7
20260506134427 70 199 6.1 0.0 0.00 0.00 0.00 65 1010.7
20260506134327 70 243 6.1 0.0 0.00 0.00 0.00 65 1010.8
20260506134228 70 183 6.1 0.0 0.00 0.00 0.00 65 1010.8
20260506134149 70 193 6.1 0.0 0.00 0.00 0.00 65 1010.8
20260506134035 70 215 6.1 0.0 0.00 0.00 0.00 65 1010.8
20260506133935 70 186 7.0 0.0 0.00 0.00 0.00 65 1010.8
20260506133854 70 188 7.0 0.0 0.00 0.00 0.00 65 1010.8
20260506133738 70 206 7.8 0.0 0.00 0.00 0.00 65 1010.8
20260506133656 70 147 7.8 0.0 0.00 0.00 0.00 65 1010.8
20260506133538 70 269 7.0 0.0 0.00 0.00 0.00 65 1010.8
20260506133502 70 215 6.1 0.0 0.00 0.00 0.00 65 1010.8
20260506133341 70 235 6.1 0.0 0.00 0.00 0.00 65 1010.8
20260506133225 70 186 5.2 0.0 0.00 0.00 0.00 65 1010.8
20260506133127 70 184 6.1 0.0 0.00 0.00 0.00 65 1010.8
20260506133024 70 234 5.2 0.0 0.00 0.00 0.00 65 1010.8
20260506132926 70 190 5.2 0.0 0.00 0.00 0.00 65 1010.8
20260506132826 70 224 5.2 0.0 0.00 0.00 0.00 65 1011.0
20260506132728 70 184 5.2 0.0 0.00 0.00 0.00 65 1011.0
20260506132631 70 191 5.2 0.0 0.00 0.00 0.00 65 1011.0
20260506132533 70 177 5.2 0.0 0.00 0.00 0.00 65 1011.0
20260506132430 70 166 5.2 0.0 0.00 0.00 0.00 65 1011.0
20260506132331 70 253 6.1 0.0 0.00 0.00 0.00 65 1011.0
20260506132229 70 226 6.1 0.0 0.00 0.00 0.00 65 1011.0
20260506132130 70 199 6.1 0.0 0.00 0.00 0.00 65 1011.0
20260506132031 70 201 5.2 0.0 0.00 0.00 0.00 65 1011.0
20260506131936 70 174 5.2 0.0 0.00 0.00 0.00 65 1011.0
20260506131838 70 213 5.2 0.0 0.00 0.00 0.00 65 1011.0
20260506131800 70 193 5.2 0.0 0.00 0.00 0.00 66 1011.0
20260506131637 70 160 5.2 0.0 0.00 0.00 0.00 66 1011.0
20260506131540 70 170 6.1 0.0 0.00 0.00 0.00 66 1011.0
20260506131436 70 182 6.1 0.0 0.00 0.00 0.00 65 1011.0
20260506131338 70 207 5.2 0.0 0.00 0.00 0.00 66 1011.0
20260506131239 70 205 5.2 0.0 0.00 0.00 0.00 66 1011.0
20260506131141 70 165 5.2 0.0 0.00 0.00 0.00 66 1011.0
20260506131103 70 153 5.2 0.0 0.00 0.00 0.00 66 1011.0
20260506130943 70 147 5.2 0.0 0.00 0.00 0.00 66 1011.0
20260506130842 70 173 5.2 0.0 0.00 0.00 0.00 66 1011.0
20260506130744 70 192 5.2 0.0 0.00 0.00 0.00 66 1011.0
20260506130626 70 140 4.3 0.0 0.00 0.00 0.00 66 1011.0
20260506130528 70 142 4.3 0.0 0.00 0.00 0.00 66 1011.0
20260506130430 69 188 5.2 0.0 0.00 0.00 0.00 67 1011.0
20260506130331 69 26 5.2 0.0 0.00 0.00 0.00 67 1011.0
20260506130229 69 185 5.2 0.0 0.00 0.00 0.00 67 1011.0
20260506130132 69 151 5.2 0.0 0.00 0.00 0.00 67 1011.0
20260506130030 69 167 6.1 0.0 0.00 0.00 0.00 67 1011.0
20260506125939 69 247 5.2 0.0 0.00 0.00 0.00 67 1011.0
20260506125900 69 163 5.2 0.0 0.00 0.00 0.00 67 1010.9
20260506125741 69 167 5.2 0.0 0.00 0.00 0.00 67 1010.9
20260506125639 69 166 5.2 0.0 0.00 0.00 0.00 67 1010.9
20260506125540 69 278 5.2 0.0 0.00 0.00 0.00 67 1010.9
20260506125440 69 188 4.3 0.0 0.00 0.00 0.00 67 1010.9
20260506125342 69 155 4.3 0.0 0.00 0.00 0.00 67 1010.9
20260506125224 69 139 3.5 0.0 0.00 0.00 0.00 68 1010.9
20260506125126 69 186 3.5 0.0 0.00 0.00 0.00 67 1010.9
20260506125028 69 174 3.5 0.0 0.00 0.00 0.00 68 1010.9
20260506124951 69 155 3.5 0.0 0.00 0.00 0.00 68 1010.9
20260506124853 69 164 3.5 0.0 0.00 0.00 0.00 68 1010.9
20260506124733 69 172 4.3 0.0 0.00 0.00 0.00 68 1010.9
20260506124631 69 221 4.3 0.0 0.00 0.00 0.00 68 1010.9
20260506124536 69 165 4.3 0.0 0.00 0.00 0.00 68 1010.9
20260506124433 69 136 4.3 0.0 0.00 0.00 0.00 68 1010.9
20260506124334 69 181 5.2 0.0 0.00 0.00 0.00 68 1010.8
20260506124257 69 215 5.2 0.0 0.00 0.00 0.00 69 1010.8
20260506124140 68 199 5.2 0.0 0.00 0.00 0.00 69 1010.8
20260506124039 68 169 5.2 0.0 0.00 0.00 0.00 68 1010.8
20260506123938 68 136 5.2 0.0 0.00 0.00 0.00 69 1010.8
20260506123824 68 196 5.2 0.0 0.00 0.00 0.00 69 1010.8
20260506123745 68 169 4.3 0.0 0.00 0.00 0.00 69 1010.8
20260506123642 68 217 4.3 0.0 0.00 0.00 0.00 69 1010.8
20260506123544 68 190 4.3 0.0 0.00 0.00 0.00 69 1010.8
20260506123441 68 183 3.5 0.0 0.00 0.00 0.00 69 1010.8
20260506123343 68 182 3.5 0.0 0.00 0.00 0.00 69 1010.8
20260506123244 68 186 3.5 0.0 0.00 0.00 0.00 70 1010.8
20260506123146 68 100 3.5 0.0 0.00 0.00 0.00 70 1010.8
20260506123024 68 182 3.5 0.0 0.00 0.00 0.00 70 1010.8
20260506122928 68 175 4.3 0.0 0.00 0.00 0.00 70 1010.8
20260506122847 68 170 4.3 0.0 0.00 0.00 0.00 70 1011.0
20260506122730 68 211 5.2 0.0 0.00 0.00 0.00 70 1011.0
20260506122631 68 199 5.2 0.0 0.00 0.00 0.00 70 1011.0
20260506122537 67 199 4.3 0.0 0.00 0.00 0.00 70 1011.0
20260506122437 67 193 4.3 0.0 0.00 0.00 0.00 70 1011.0
20260506122337 67 243 4.3 0.0 0.00 0.00 0.00 70 1011.0
20260506122236 67 134 5.2 0.0 0.00 0.00 0.00 70 1011.0
20260506122135 67 197 6.1 0.0 0.00 0.00 0.00 70 1011.0
20260506122035 67 201 5.2 0.0 0.00 0.00 0.00 70 1011.0
20260506121940 67 165 5.2 0.0 0.00 0.00 0.00 70 1011.0
20260506121901 67 159 4.3 0.0 0.00 0.00 0.00 70 1011.0
20260506121742 67 175 4.3 0.0 0.00 0.00 0.00 70 1011.0
20260506121639 67 178 3.5 0.0 0.00 0.00 0.00 70 1011.0
20260506121541 67 190 3.5 0.0 0.00 0.00 0.00 70 1011.0
20260506121502 67 176 3.5 0.0 0.00 0.00 0.00 70 1011.0
20260506121343 67 160 2.6 0.0 0.00 0.00 0.00 70 1011.0
20260506121227 67 228 2.6 0.0 0.00 0.00 0.00 70 1011.0
20260506121128 67 162 2.6 0.0 0.00 0.00 0.00 70 1011.0
20260506121026 67 153 1.7 0.0 0.00 0.00 0.00 70 1011.0
20260506120930 67 259 2.6 0.0 0.00 0.00 0.00 71 1011.0
20260506120828 67 76 2.6 0.0 0.00 0.00 0.00 70 1011.0
20260506120733 67 159 2.6 0.0 0.00 0.00 0.00 71 1011.0
20260506120630 67 175 2.6 0.0 0.00 0.00 0.00 70 1011.0
20260506120536 67 134 3.5 0.0 0.00 0.00 0.00 70 1011.0
20260506120436 67 199 3.5 0.0 0.00 0.00 0.00 70 1011.0
20260506120358 67 132 3.5 0.0 0.00 0.00 0.00 70 1011.0
20260506120239 67 181 3.5 0.0 0.00 0.00 0.00 70 1011.0
20260506120140 67 179 2.6 0.0 0.00 0.00 0.00 70 1011.0
20260506115940 67 149 1.7 0.0 0.00 0.00 0.00 70 1011.0
20260506115825 67 179 1.7 0.0 0.00 0.00 0.00 71 1011.1
20260506115727 67 198 1.7 0.0 0.00 0.00 0.00 71 1011.1
20260506115649 67 111 1.7 0.0 0.00 0.00 0.00 70 1011.1
20260506115550 67 201 1.7 0.0 0.00 0.00 0.00 70 1011.1
20260506115425 67 201 1.7 0.0 0.00 0.00 0.00 71 1011.1
20260506115327 67 129 2.6 0.0 0.00 0.00 0.00 71 1011.1
20260506115226 67 192 2.6 0.0 0.00 0.00 0.00 71 1011.1
20260506115132 67 189 2.6 0.0 0.00 0.00 0.00 71 1011.1
20260506115030 67 184 3.5 0.0 0.00 0.00 0.00 71 1011.1
20260506114931 67 185 3.5 0.0 0.00 0.00 0.00 71 1011.1
20260506114829 67 163 3.5 0.0 0.00 0.00 0.00 71 1011.1
20260506114750 67 156 3.5 0.0 0.00 0.00 0.00 71 1011.1
20260506114646 67 154 3.5 0.0 0.00 0.00 0.00 71 1011.1
20260506114547 67 194 3.5 0.0 0.00 0.00 0.00 71 1011.1
20260506114444 67 164 3.5 0.0 0.00 0.00 0.00 71 1011.1
20260506114328 67 177 2.6 0.0 0.00 0.00 0.00 71 1011.0
20260506114227 67 183 3.5 0.0 0.00 0.00 0.00 71 1011.0
20260506114130 67 195 3.5 0.0 0.00 0.00 0.00 71 1011.0
20260506114031 67 174 3.5 0.0 0.00 0.00 0.00 71 1011.0
20260506113933 67 274 2.6 0.0 0.00 0.00 0.00 71 1011.0
20260506113850 67 184 2.6 0.0 0.00 0.00 0.00 71 1011.0
20260506113731 67 134 2.6 0.0 0.00 0.00 0.00 71 1011.0
20260506113633 67 164 2.6 0.0 0.00 0.00 0.00 71 1011.0
20260506113536 67 201 2.6 0.0 0.00 0.00 0.00 71 1011.0
20260506113435 67 194 2.6 0.0 0.00 0.00 0.00 71 1011.0
20260506113337 67 277 2.6 0.0 0.00 0.00 0.00 71 1011.0
20260506113239 67 199 2.6 0.0 0.00 0.00 0.00 71 1011.0
20260506113203 67 148 2.6 0.0 0.00 0.00 0.00 71 1011.0
20260506113025 67 174 2.6 0.0 0.00 0.00 0.00 71 1011.0
20260506112929 67 271 2.6 0.0 0.00 0.00 0.00 72 1011.0
20260506112847 67 134 2.6 0.0 0.00 0.00 0.00 72 1011.2
20260506112728 67 195 3.5 0.0 0.00 0.00 0.00 72 1011.2
20260506112629 67 155 3.5 0.0 0.00 0.00 0.00 72 1011.2
20260506112531 67 180 3.5 0.0 0.00 0.00 0.00 72 1011.2
20260506112433 67 189 4.3 0.0 0.00 0.00 0.00 72 1011.2
20260506112341 67 194 4.3 0.0 0.00 0.00 0.00 72 1011.2
20260506112239 67 166 4.3 0.0 0.00 0.00 0.00 72 1011.2
20260506112141 67 181 4.3 0.0 0.00 0.00 0.00 73 1011.2
20260506112041 67 179 4.3 0.0 0.00 0.00 0.00 73 1011.2
20260506112001 66 150 4.3 0.0 0.00 0.00 0.00 73 1011.2
20260506111842 66 190 4.3 0.0 0.00 0.00 0.00 73 1011.2
20260506111744 66 188 4.3 0.0 0.00 0.00 0.00 73 1011.2
20260506111646 66 186 4.3 0.0 0.00 0.00 0.00 73 1011.2
20260506111526 66 180 4.3 0.0 0.00 0.00 0.00 73 1011.2
20260506111428 66 172 3.5 0.0 0.00 0.00 0.00 73 1011.2
20260506111330 66 184 3.5 0.0 0.00 0.00 0.00 74 1011.0
20260506111228 66 208 2.6 0.0 0.00 0.00 0.00 74 1011.0
20260506111148 66 197 2.6 0.0 0.00 0.00 0.00 74 1011.0
20260506111027 66 189 2.6 0.0 0.00 0.00 0.00 74 1011.0
20260506110931 66 128 2.6 0.0 0.00 0.00 0.00 74 1011.0
20260506110828 66 193 2.6 0.0 0.00 0.00 0.00 74 1011.0
20260506110729 66 190 2.6 0.0 0.00 0.00 0.00 74 1011.0
20260506110628 66 180 1.7 0.0 0.00 0.00 0.00 74 1011.0
20260506110531 66 161 1.7 0.0 0.00 0.00 0.00 74 1011.0
20260506110431 66 137 1.7 0.0 0.00 0.00 0.00 74 1011.0
20260506110334 66 258 2.6 0.0 0.00 0.00 0.00 75 1011.0
20260506110236 66 155 2.6 0.0 0.00 0.00 0.00 74 1011.0
20260506110137 66 149 2.6 0.0 0.00 0.00 0.00 74 1011.0
20260506110059 66 138 2.6 0.0 0.00 0.00 0.00 74 1011.0
20260506105958 66 156 2.6 0.0 0.00 0.00 0.00 74 1011.0
20260506105903 66 172 2.6 0.0 0.00 0.00 0.00 74 1011.0
20260506105742 66 182 1.7 0.0 0.00 0.00 0.00 75 1011.0
20260506105644 66 130 1.7 0.0 0.00 0.00 0.00 75 1011.0
20260506105548 66 114 2.6 0.0 0.00 0.00 0.00 75 1011.0
20260506105429 66 174 2.6 0.0 0.00 0.00 0.00 75 1011.0
20260506105331 66 74 1.7 0.0 0.00 0.00 0.00 75 1011.0
20260506105229 66 85 1.7 0.0 0.00 0.00 0.00 75 1011.0
20260506105134 65 170 2.6 0.0 0.00 0.00 0.00 75 1011.0
20260506105032 65 254 2.6 0.0 0.00 0.00 0.00 75 1011.0
20260506104932 65 263 2.6 0.0 0.00 0.00 0.00 75 1011.0
20260506104834 65 184 2.6 0.0 0.00 0.00 0.00 75 1011.0
20260506104736 65 172 2.6 0.0 0.00 0.00 0.00 75 1011.0
20260506104657 65 179 3.5 0.0 0.00 0.00 0.00 75 1011.0
20260506104539 65 189 2.6 0.0 0.00 0.00 0.00 75 1011.0
20260506104435 65 162 3.5 0.0 0.00 0.00 0.00 75 1011.0
20260506104336 65 164 3.5 0.0 0.00 0.00 0.00 76 1011.0
20260506104235 65 163 3.5 0.0 0.00 0.00 0.00 76 1011.0
20260506104136 65 162 2.6 0.0 0.00 0.00 0.00 76 1011.0
20260506104039 65 170 2.6 0.0 0.00 0.00 0.00 76 1011.0
20260506103939 65 153 3.5 0.0 0.00 0.00 0.00 76 1011.0
20260506103836 65 178 2.6 0.0 0.00 0.00 0.00 76 1011.0
20260506103737 65 184 2.6 0.0 0.00 0.00 0.00 76 1011.0
20260506103636 65 149 2.6 0.0 0.00 0.00 0.00 76 1011.0
20260506103536 65 149 2.6 0.0 0.00 0.00 0.00 76 1011.0
20260506103440 65 188 2.6 0.0 0.00 0.00 0.00 76 1011.0
20260506103324 65 194 1.7 0.0 0.00 0.00 0.00 76 1011.0
20260506103225 65 186 2.6 0.0 0.00 0.00 0.00 76 1011.0
20260506103127 65 165 2.6 0.0 0.00 0.00 0.00 76 1011.0
20260506103048 65 168 2.6 0.0 0.00 0.00 0.00 76 1011.0
20260506102928 65 200 2.6 0.0 0.00 0.00 0.00 76 1011.0
20260506102847 65 137 2.6 0.0 0.00 0.00 0.00 76 1010.9
20260506102734 65 158 3.5 0.0 0.00 0.00 0.00 76 1010.9
20260506102632 65 185 3.5 0.0 0.00 0.00 0.00 76 1010.9
20260506102535 65 197 2.6 0.0 0.00 0.00 0.00 76 1010.9
20260506102459 65 135 2.6 0.0 0.00 0.00 0.00 76 1010.9
20260506102339 65 168 2.6 0.0 0.00 0.00 0.00 76 1010.9
20260506102221 65 180 2.6 0.0 0.00 0.00 0.00 76 1010.9
20260506102146 65 152 2.6 0.0 0.00 0.00 0.00 76 1010.9
20260506102028 65 177 2.6 0.0 0.00 0.00 0.00 76 1010.9
20260506101931 65 229 2.6 0.0 0.00 0.00 0.00 76 1010.9
20260506101830 65 192 2.6 0.0 0.00 0.00 0.00 76 1010.9
20260506101731 65 166 1.7 0.0 0.00 0.00 0.00 76 1010.9
20260506101631 65 188 1.7 0.0 0.00 0.00 0.00 76 1010.9
20260506101536 65 170 2.6 0.0 0.00 0.00 0.00 77 1010.9
20260506101457 65 176 2.6 0.0 0.00 0.00 0.00 76 1010.9
20260506101342 65 143 2.6 0.0 0.00 0.00 0.00 77 1010.7
20260506101240 65 168 2.6 0.0 0.00 0.00 0.00 76 1010.7
20260506101142 65 197 2.6 0.0 0.00 0.00 0.00 76 1010.7
20260506101043 65 167 3.5 0.0 0.00 0.00 0.00 76 1010.7
20260506100944 65 110 3.5 0.0 0.00 0.00 0.00 77 1010.7
20260506100841 65 141 3.5 0.0 0.00 0.00 0.00 77 1010.7
20260506100747 65 155 3.5 0.0 0.00 0.00 0.00 77 1010.7
20260506100710 65 85 3.5 0.0 0.00 0.00 0.00 77 1010.7
20260506100619 65 156 3.5 0.0 0.00 0.00 0.00 77 1010.7
20260506100501 65 182 3.5 0.0 0.00 0.00 0.00 76 1010.7
20260506100341 65 174 4.3 0.0 0.00 0.00 0.00 76 1010.7
20260506100240 65 155 3.5 0.0 0.00 0.00 0.00 76 1010.7
20260506100140 65 170 4.3 0.0 0.00 0.00 0.00 77 1010.7
20260506100038 65 191 3.5 0.0 0.00 0.00 0.00 76 1010.7
20260506095942 65 187 3.5 0.0 0.00 0.00 0.00 77 1010.7
20260506095825 65 176 3.5 0.0 0.00 0.00 0.00 77 1010.7
20260506095747 65 182 3.5 0.0 0.00 0.00 0.00 77 1010.7
20260506095643 65 170 3.5 0.0 0.00 0.00 0.00 77 1010.7
20260506095545 65 189 2.6 0.0 0.00 0.00 0.00 77 1010.7
20260506095443 65 151 2.6 0.0 0.00 0.00 0.00 76 1010.7
20260506095329 65 167 1.7 0.0 0.00 0.00 0.00 77 1010.7
20260506095230 65 156 2.6 0.0 0.00 0.00 0.00 77 1010.7
20260506095131 65 194 1.7 0.0 0.00 0.00 0.00 76 1010.7
20260506095030 65 164 1.7 0.0 0.00 0.00 0.00 76 1010.7
20260506094929 65 143 1.7 0.0 0.00 0.00 0.00 76 1010.7
20260506094828 65 80 1.7 0.0 0.00 0.00 0.00 76 1010.7
20260506094734 65 168 1.7 0.0 0.00 0.00 0.00 76 1010.7
20260506094658 65 166 1.7 0.0 0.00 0.00 0.00 76 1010.7
20260506094539 65 169 1.7 0.0 0.00 0.00 0.00 76 1010.7
20260506094437 65 146 2.6 0.0 0.00 0.00 0.00 76 1010.7
20260506094338 65 122 2.6 0.0 0.00 0.00 0.00 76 1010.7
20260506094259 65 192 2.6 0.0 0.00 0.00 0.00 76 1010.7
20260506094139 65 159 2.6 0.0 0.00 0.00 0.00 76 1010.7
20260506094101 65 146 2.6 0.0 0.00 0.00 0.00 76 1010.7
20260506093944 65 148 2.6 0.0 0.00 0.00 0.00 76 1010.7
20260506093822 65 147 2.6 0.0 0.00 0.00 0.00 76 1010.7
20260506093747 65 281 2.6 0.0 0.00 0.00 0.00 76 1010.7
20260506093645 65 167 2.6 0.0 0.00 0.00 0.00 77 1010.7
20260506093546 65 190 2.6 0.0 0.00 0.00 0.00 77 1010.7
20260506093424 65 184 1.7 0.0 0.00 0.00 0.00 77 1010.7
20260506093327 65 183 1.7 0.0 0.00 0.00 0.00 77 1010.7
20260506093229 65 174 1.7 0.0 0.00 0.00 0.00 77 1010.7
20260506093132 65 152 1.7 0.0 0.00 0.00 0.00 77 1010.7
20260506093030 65 162 1.7 0.0 0.00 0.00 0.00 77 1010.7
20260506092934 65 237 2.6 0.0 0.00 0.00 0.00 77 1010.7
20260506092838 65 113 3.5 0.0 0.00 0.00 0.00 77 1010.7
20260506092759 65 111 3.5 0.0 0.00 0.00 0.00 77 1010.7
20260506092637 65 134 3.5 0.0 0.00 0.00 0.00 77 1010.7
20260506092545 65 186 3.5 0.0 0.00 0.00 0.00 77 1010.7
20260506092422 65 173 3.5 0.0 0.00 0.00 0.00 77 1010.7
20260506092327 65 174 3.5 0.0 0.00 0.00 0.00 77 1010.7
20260506092225 65 203 3.5 0.0 0.00 0.00 0.00 77 1010.7
20260506092147 65 155 3.5 0.0 0.00 0.00 0.00 77 1010.7
20260506092025 65 172 3.5 0.0 0.00 0.00 0.00 77 1010.7
20260506091930 65 195 2.6 0.0 0.00 0.00 0.00 77 1010.7
20260506091848 65 101 3.5 0.0 0.00 0.00 0.00 77 1010.7
20260506091729 65 167 2.6 0.0 0.00 0.00 0.00 77 1010.7
20260506091631 65 183 2.6 0.0 0.00 0.00 0.00 77 1010.7
20260506091533 65 161 3.5 0.0 0.00 0.00 0.00 77 1010.7
20260506091434 65 181 2.6 0.0 0.00 0.00 0.00 77 1010.7
20260506091355 65 161 2.6 0.0 0.00 0.00 0.00 77 1010.8
20260506091236 65 261 2.6 0.0 0.00 0.00 0.00 77 1010.8
20260506091143 65 227 2.6 0.0 0.00 0.00 0.00 77 1010.8
20260506091044 65 192 2.6 0.0 0.00 0.00 0.00 77 1010.8
20260506090924 65 143 2.6 0.0 0.00 0.00 0.00 77 1010.8
20260506090826 65 184 1.7 0.0 0.00 0.00 0.00 77 1010.8
20260506090727 65 113 2.6 0.0 0.00 0.00 0.00 77 1010.8
20260506090626 65 180 3.5 0.0 0.00 0.00 0.00 77 1010.8
20260506090533 65 142 2.6 0.0 0.00 0.00 0.00 77 1010.8
20260506090430 65 201 2.6 0.0 0.00 0.00 0.00 77 1010.8
20260506090331 65 10 3.5 0.0 0.00 0.00 0.00 77 1010.8
20260506090233 65 230 3.5 0.0 0.00 0.00 0.00 77 1010.8
20260506090135 65 176 2.6 0.0 0.00 0.00 0.00 77 1010.8
20260506090032 65 142 3.5 0.0 0.00 0.00 0.00 77 1010.8
20260506085931 65 176 2.6 0.0 0.00 0.00 0.00 76 1010.8
20260506085856 65 164 2.6 0.0 0.00 0.00 0.00 76 1011.0
20260506085736 65 178 1.7 0.0 0.00 0.00 0.00 76 1011.0
20260506085636 65 173 1.7 0.0 0.00 0.00 0.00 77 1011.0
20260506085538 65 168 1.7 0.0 0.00 0.00 0.00 76 1011.0
20260506085435 65 155 1.7 0.0 0.00 0.00 0.00 76 1011.0
20260506085336 65 181 0.9 0.0 0.00 0.00 0.00 77 1011.0
20260506085254 65 182 0.9 0.0 0.00 0.00 0.00 76 1011.0
20260506085138 65 128 0.9 0.0 0.00 0.00 0.00 76 1011.0
20260506085040 65 179 0.9 0.0 0.00 0.00 0.00 76 1011.0
20260506084940 65 149 0.9 0.0 0.00 0.00 0.00 76 1011.0
20260506084838 65 241 0.9 0.0 0.00 0.00 0.00 76 1011.0
20260506084739 65 175 0.9 0.0 0.00 0.00 0.00 76 1011.0
20260506084641 66 149 1.7 0.0 0.00 0.00 0.00 76 1011.0
20260506084526 66 163 1.7 0.0 0.00 0.00 0.00 76 1011.0
20260506084428 66 163 1.7 0.0 0.00 0.00 0.00 76 1011.0
20260506084329 66 163 1.7 0.0 0.00 0.00 0.00 76 1011.0
20260506084227 66 184 1.7 0.0 0.00 0.00 0.00 76 1011.0
20260506084129 66 171 1.7 0.0 0.00 0.00 0.00 76 1011.0
20260506084047 66 202 2.6 0.0 0.00 0.00 0.00 76 1011.0
20260506083946 66 164 2.6 0.0 0.00 0.00 0.00 76 1011.0
20260506083828 66 290 3.5 0.0 0.00 0.00 0.00 76 1011.0
20260506083732 66 159 3.5 0.0 0.00 0.00 0.00 76 1011.0
20260506083638 66 151 3.5 0.0 0.00 0.00 0.00 76 1011.0
20260506083600 66 148 2.6 0.0 0.00 0.00 0.00 76 1011.0
20260506083441 66 171 2.6 0.0 0.00 0.00 0.00 76 1011.0
20260506083359 66 70 2.6 0.0 0.00 0.00 0.00 76 1011.0
20260506083300 66 147 2.6 0.0 0.00 0.00 0.00 76 1011.0
20260506083140 66 155 2.6 0.0 0.00 0.00 0.00 76 1011.0
20260506083026 66 154 2.6 0.0 0.00 0.00 0.00 76 1011.0
20260506082946 66 183 2.6 0.0 0.00 0.00 0.00 76 1011.0
20260506082825 66 170 1.7 0.0 0.00 0.00 0.00 76 1011.1
20260506082727 66 264 1.7 0.0 0.00 0.00 0.00 76 1011.1
20260506082625 66 155 1.7 0.0 0.00 0.00 0.00 76 1011.1
20260506082547 66 157 1.7 0.0 0.00 0.00 0.00 76 1011.1
20260506082429 66 141 2.6 0.0 0.00 0.00 0.00 76 1011.1
20260506082329 66 163 2.6 0.0 0.00 0.00 0.00 76 1011.1
20260506082250 66 227 2.6 0.0 0.00 0.00 0.00 76 1011.1
20260506082130 66 185 2.6 0.0 0.00 0.00 0.00 76 1011.1
20260506082031 66 172 2.6 0.0 0.00 0.00 0.00 76 1011.1
20260506081932 66 169 2.6 0.0 0.00 0.00 0.00 75 1011.1
20260506081852 66 263 2.6 0.0 0.00 0.00 0.00 76 1011.1
20260506081734 66 157 2.6 0.0 0.00 0.00 0.00 76 1011.1
20260506081636 66 168 2.6 0.0 0.00 0.00 0.00 76 1011.1
20260506081536 66 173 2.6 0.0 0.00 0.00 0.00 76 1011.1
20260506081434 66 184 2.6 0.0 0.00 0.00 0.00 75 1011.1
20260506081338 66 139 2.6 0.0 0.00 0.00 0.00 75 1010.9
20260506081240 66 146 2.6 0.0 0.00 0.00 0.00 75 1010.9
20260506081142 66 196 2.6 0.0 0.00 0.00 0.00 75 1010.9
20260506081029 66 136 2.6 0.0 0.00 0.00 0.00 75 1010.9
20260506080934 66 140 2.6 0.0 0.00 0.00 0.00 75 1010.9
20260506080835 66 140 2.6 0.0 0.00 0.00 0.00 75 1010.9
20260506080737 66 157 2.6 0.0 0.00 0.00 0.00 75 1010.9
20260506080635 66 134 2.6 0.0 0.00 0.00 0.00 75 1010.9
20260506080537 66 174 2.6 0.0 0.00 0.00 0.00 75 1010.9
20260506080444 66 179 2.6 0.0 0.00 0.00 0.00 75 1010.9
20260506080406 66 164 1.7 0.0 0.00 0.00 0.00 75 1010.9
20260506080243 66 193 1.7 0.0 0.00 0.00 0.00 75 1010.9
20260506080146 66 146 1.7 0.0 0.00 0.00 0.00 75 1010.9
20260506073440 67 160 2.6 0.0 0.00 0.00 0.00 75 1011.0
20260506073322 67 164 2.6 0.0 0.00 0.00 0.00 75 1011.0
20260506073247 67 173 3.5 0.0 0.00 0.00 0.00 74 1011.0
20260506073208 67 180 3.5 0.0 0.00 0.00 0.00 74 1011.0
20260506073029 67 178 3.5 0.0 0.00 0.00 0.00 74 1011.0
20260506072950 67 165 3.5 0.0 0.00 0.00 0.00 74 1011.0
20260506072850 67 104 3.5 0.0 0.00 0.00 0.00 74 1011.0
20260506072750 67 132 3.5 0.0 0.00 0.00 0.00 74 1011.0
20260506072630 67 119 3.5 0.0 0.00 0.00 0.00 74 1011.0
20260506072530 67 155 3.5 0.0 0.00 0.00 0.00 74 1011.0
20260506072428 67 192 2.6 0.0 0.00 0.00 0.00 74 1011.0
20260506072329 67 159 3.5 0.0 0.00 0.00 0.00 74 1011.0
20260506072234 67 169 3.5 0.0 0.00 0.00 0.00 74 1011.0
20260506072136 67 180 2.6 0.0 0.00 0.00 0.00 74 1011.0
20260506072034 67 147 2.6 0.0 0.00 0.00 0.00 74 1011.0
20260506071933 67 140 1.7 0.0 0.00 0.00 0.00 74 1011.0
20260506071831 67 178 1.7 0.0 0.00 0.00 0.00 74 1011.0
20260506071733 67 155 1.7 0.0 0.00 0.00 0.00 74 1011.0
20260506071637 67 226 1.7 0.0 0.00 0.00 0.00 74 1011.0
20260506071539 67 154 1.7 0.0 0.00 0.00 0.00 74 1011.0
20260506071438 67 170 2.6 0.0 0.00 0.00 0.00 74 1011.0
20260506071339 67 180 1.7 0.0 0.00 0.00 0.00 74 1011.0
20260506071240 67 187 1.7 0.0 0.00 0.00 0.00 74 1011.0
20260506071142 67 168 1.7 0.0 0.00 0.00 0.00 74 1011.0
20260506071026 67 149 2.6 0.0 0.00 0.00 0.00 74 1011.0
20260506070927 67 122 2.6 0.0 0.00 0.00 0.00 74 1011.0
20260506070827 67 175 2.6 0.0 0.00 0.00 0.00 74 1011.0
20260506070729 67 183 2.6 0.0 0.00 0.00 0.00 73 1011.0
20260506070626 67 128 2.6 0.0 0.00 0.00 0.00 73 1011.0
20260506070528 67 156 2.6 0.0 0.00 0.00 0.00 73 1011.0
20260506070429 67 186 1.7 0.0 0.00 0.00 0.00 73 1011.0
20260506070338 67 173 1.7 0.0 0.00 0.00 0.00 73 1011.0
20260506070239 67 130 2.6 0.0 0.00 0.00 0.00 73 1011.0
20260506070140 67 174 1.7 0.0 0.00 0.00 0.00 73 1011.0
20260506062438 68 142 1.7 0.0 0.00 0.00 0.00 72 1011.1
20260506062339 68 197 1.7 0.0 0.00 0.00 0.00 71 1011.1
20260506062306 68 189 1.7 0.0 0.00 0.00 0.00 71 1011.1
20260506062144 68 132 0.9 0.0 0.00 0.00 0.00 71 1011.1
20260506062025 68 161 1.7 0.0 0.00 0.00 0.00 71 1011.1
20260506061945 68 158 1.7 0.0 0.00 0.00 0.00 71 1011.1
20260506061843 68 171 1.7 0.0 0.00 0.00 0.00 71 1011.1
20260506061724 68 165 1.7 0.0 0.00 0.00 0.00 71 1011.1
20260506061625 68 205 1.7 0.0 0.00 0.00 0.00 71 1011.1
20260506061546 68 94 1.7 0.0 0.00 0.00 0.00 71 1011.1
20260506061427 68 196 1.7 0.0 0.00 0.00 0.00 71 1011.1
20260506061329 68 144 1.7 0.0 0.00 0.00 0.00 71 1011.1
20260506061251 68 210 1.7 0.0 0.00 0.00 0.00 71 1011.1
20260506061152 68 182 2.6 0.0 0.00 0.00 0.00 71 1011.1
20260506061029 68 192 2.6 0.0 0.00 0.00 0.00 71 1011.1
20260506060929 68 166 2.6 0.0 0.00 0.00 0.00 70 1011.1
20260506060828 68 164 2.6 0.0 0.00 0.00 0.00 70 1011.1
20260506060750 68 160 2.6 0.0 0.00 0.00 0.00 70 1011.1
20260506060650 68 179 2.6 0.0 0.00 0.00 0.00 70 1011.1
20260506060536 68 188 2.6 0.0 0.00 0.00 0.00 70 1011.1
20260506060433 68 144 2.6 0.0 0.00 0.00 0.00 70 1011.1
20260506060355 68 156 2.6 0.0 0.00 0.00 0.00 70 1011.1
20260506060233 68 139 2.6 0.0 0.00 0.00 0.00 70 1011.1
20260506060133 68 176 2.6 0.0 0.00 0.00 0.00 70 1011.1
20260506051344 69 178 1.7 0.0 0.00 0.00 0.00 68 1011.6
20260506051221 69 192 1.7 0.0 0.00 0.00 0.00 67 1011.6
20260506051147 69 157 1.7 0.0 0.00 0.00 0.00 67 1011.6
20260506051028 69 105 1.7 0.0 0.00 0.00 0.00 68 1011.6
20260506050928 69 211 2.6 0.0 0.00 0.00 0.00 67 1011.6
20260506050831 69 178 1.7 0.0 0.00 0.00 0.00 67 1011.6
20260506050735 69 129 1.7 0.0 0.00 0.00 0.00 67 1011.6
20260506050637 69 106 1.7 0.0 0.00 0.00 0.00 67 1011.6
20260506050537 69 200 1.7 0.0 0.00 0.00 0.00 67 1011.6
20260506050455 69 153 1.7 0.0 0.00 0.00 0.00 67 1011.6
20260506050335 69 187 1.7 0.0 0.00 0.00 0.00 67 1011.6
20260506050235 69 153 1.7 0.0 0.00 0.00 0.00 67 1011.6
20260506050138 69 154 1.7 0.0 0.00 0.00 0.00 67 1011.6
20260506045126 69 127 1.7 0.0 0.00 0.00 0.00 66 1011.6
20260506045031 69 173 0.9 0.0 0.00 0.00 0.00 66 1011.6
20260506044932 69 160 0.9 0.0 0.00 0.00 0.00 66 1011.6
20260506044833 69 171 0.9 0.0 0.00 0.00 0.00 66 1011.6
20260506044733 69 173 0.9 0.0 0.00 0.00 0.00 66 1011.6
20260506044632 69 155 0.9 0.0 0.00 0.00 0.00 66 1011.6
20260506044537 69 142 0.9 0.0 0.00 0.00 0.00 66 1011.6
20260506044433 69 171 0.9 0.0 0.00 0.00 0.00 66 1011.6
20260506044339 69 155 0.9 0.0 0.00 0.00 0.00 66 1011.6
20260506044300 69 157 0.9 0.0 0.00 0.00 0.00 66 1011.6
20260506044141 69 115 0.9 0.0 0.00 0.00 0.00 65 1011.6
20260506044104 69 156 0.9 0.0 0.00 0.00 0.00 66 1011.6
20260506043942 69 157 0.9 0.0 0.00 0.00 0.00 65 1011.6
20260506043824 69 151 0.9 0.0 0.00 0.00 0.00 65 1011.6
20260506043746 69 129 0.9 0.0 0.00 0.00 0.00 65 1011.6
20260506043648 69 164 0.9 0.0 0.00 0.00 0.00 65 1011.6
20260506043530 69 161 0.9 0.0 0.00 0.00 0.00 65 1011.6
20260506043447 69 160 0.9 0.0 0.00 0.00 0.00 65 1011.6
20260506043328 69 154 0.9 0.0 0.00 0.00 0.00 65 1011.6
20260506043227 69 153 1.7 0.0 0.00 0.00 0.00 65 1011.6
20260506043127 69 157 1.7 0.0 0.00 0.00 0.00 65 1011.6
20260506043030 69 187 1.7 0.0 0.00 0.00 0.00 65 1011.6
20260506042934 69 182 1.7 0.0 0.00 0.00 0.00 65 1011.6
20260506042832 69 188 1.7 0.0 0.00 0.00 0.00 65 1011.6
20260506042737 69 194 1.7 0.0 0.00 0.00 0.00 65 1011.6
20260506042659 70 245 1.7 0.0 0.00 0.00 0.00 65 1011.6
20260506042541 70 218 1.7 0.0 0.00 0.00 0.00 65 1011.6
20260506042501 70 180 1.7 0.0 0.00 0.00 0.00 65 1011.6
20260506042342 70 180 1.7 0.0 0.00 0.00 0.00 65 1011.6
20260506042305 69 194 1.7 0.0 0.00 0.00 0.00 65 1011.6
20260506042128 69 144 1.7 0.0 0.00 0.00 0.00 65 1011.6
20260506042028 69 163 1.7 0.0 0.00 0.00 0.00 65 1011.6
20260506041928 69 163 1.7 0.0 0.00 0.00 0.00 65 1011.6
20260506041827 69 192 1.7 0.0 0.00 0.00 0.00 65 1011.6
20260506041728 69 161 0.9 0.0 0.00 0.00 0.00 65 1011.6
20260506041627 69 172 0.9 0.0 0.00 0.00 0.00 65 1011.6
20260506041536 69 176 0.9 0.0 0.00 0.00 0.00 65 1011.6
20260506041437 69 164 0.9 0.0 0.00 0.00 0.00 65 1011.6
20260506041340 69 175 0.9 0.0 0.00 0.00 0.00 65 1011.6
20260506041240 69 175 0.9 0.0 0.00 0.00 0.00 65 1011.6
20260506041203 69 151 1.7 0.0 0.00 0.00 0.00 65 1011.6
20260506041040 69 149 0.9 0.0 0.00 0.00 0.00 65 1011.6
20260506040940 69 136 0.9 0.0 0.00 0.00 0.00 65 1011.6
20260506040841 69 140 1.7 0.0 0.00 0.00 0.00 65 1011.6
20260506040723 69 167 1.7 0.0 0.00 0.00 0.00 65 1011.6
20260506040645 69 165 1.7 0.0 0.00 0.00 0.00 65 1011.6
20260506040559 69 220 1.7 0.0 0.00 0.00 0.00 65 1011.6
20260506040439 69 151 1.7 0.0 0.00 0.00 0.00 64 1011.6
20260506040341 69 152 1.7 0.0 0.00 0.00 0.00 65 1011.6
20260506040239 69 186 1.7 0.0 0.00 0.00 0.00 64 1011.6
20260506040144 69 159 1.7 0.0 0.00 0.00 0.00 64 1011.6
20260506040043 69 163 1.7 0.0 0.00 0.00 0.00 64 1011.6
20260506035945 69 179 1.7 0.0 0.00 0.00 0.00 64 1011.6
20260506035904 69 153 2.6 0.0 0.00 0.00 0.00 64 1011.6
20260506035745 69 172 1.7 0.0 0.00 0.00 0.00 64 1011.6
20260506035644 69 195 1.7 0.0 0.00 0.00 0.00 64 1011.6
20260506035529 69 153 1.7 0.0 0.00 0.00 0.00 64 1011.6
20260506035425 69 172 1.7 0.0 0.00 0.00 0.00 64 1011.6
20260506035328 69 161 1.7 0.0 0.00 0.00 0.00 64 1011.6
20260506035227 69 161 2.6 0.0 0.00 0.00 0.00 64 1011.6
20260506035131 69 157 1.7 0.0 0.00 0.00 0.00 64 1011.6
20260506035030 69 154 1.7 0.0 0.00 0.00 0.00 64 1011.6
20260506034949 69 163 2.6 0.0 0.00 0.00 0.00 64 1011.6
20260506034831 69 166 1.7 0.0 0.00 0.00 0.00 64 1011.6
20260506034733 69 161 1.7 0.0 0.00 0.00 0.00 64 1011.6
20260506034631 69 182 1.7 0.0 0.00 0.00 0.00 64 1011.6
20260506034534 69 170 0.9 0.0 0.00 0.00 0.00 64 1011.6
20260506034430 69 153 1.7 0.0 0.00 0.00 0.00 64 1011.6
20260506034332 69 181 0.9 0.0 0.00 0.00 0.00 64 1011.6
20260506034229 69 123 1.7 0.0 0.00 0.00 0.00 63 1011.6
20260506034135 69 145 1.7 0.0 0.00 0.00 0.00 63 1011.6
20260506034057 69 179 0.9 0.0 0.00 0.00 0.00 63 1011.6
20260506033937 69 194 0.9 0.0 0.00 0.00 0.00 63 1011.6
20260506033836 69 178 0.9 0.0 0.00 0.00 0.00 63 1011.6
20260506033739 69 178 0.9 0.0 0.00 0.00 0.00 63 1011.6
20260506033637 69 178 0.9 0.0 0.00 0.00 0.00 63 1011.6
20260506033539 69 178 0.9 0.0 0.00 0.00 0.00 63 1011.6
20260506033503 69 159 0.9 0.0 0.00 0.00 0.00 63 1011.6
20260506033324 69 166 0.9 0.0 0.00 0.00 0.00 63 1011.6
20260506033245 69 169 0.0 0.0 0.00 0.00 0.00 63 1011.6
20260506033206 69 133 0.0 0.0 0.00 0.00 0.00 63 1011.6
20260506033024 69 147 0.0 0.0 0.00 0.00 0.00 63 1011.6
20260506032947 69 109 0.0 0.0 0.00 0.00 0.00 63 1011.6
20260506032828 69 139 0.0 0.0 0.00 0.00 0.00 63 1011.6
20260506032734 69 138 0.0 0.0 0.00 0.00 0.00 63 1011.6
20260506032653 69 138 0.9 0.0 0.00 0.00 0.00 62 1011.6
20260506032534 69 163 0.9 0.0 0.00 0.00 0.00 62 1011.6
20260506032434 69 184 0.9 0.0 0.00 0.00 0.00 62 1011.6
20260506032337 69 151 0.9 0.0 0.00 0.00 0.00 62 1011.6
20260506032238 69 151 0.9 0.0 0.00 0.00 0.00 62 1011.6
20260506032203 69 151 0.9 0.0 0.00 0.00 0.00 62 1011.6
20260506032025 69 140 0.9 0.0 0.00 0.00 0.00 62 1011.6
20260506031945 69 140 0.9 0.0 0.00 0.00 0.00 62 1011.6
20260506031843 69 144 0.9 0.0 0.00 0.00 0.00 62 1011.6
20260506031744 69 194 0.9 0.0 0.00 0.00 0.00 62 1011.6
20260506031624 69 153 0.9 0.0 0.00 0.00 0.00 62 1011.6
20260506031529 70 130 0.9 0.0 0.00 0.00 0.00 62 1011.6
20260506031425 69 168 0.9 0.0 0.00 0.00 0.00 62 1011.6
20260506031350 70 168 0.9 0.0 0.00 0.00 0.00 62 1011.6
20260506031227 70 116 0.9 0.0 0.00 0.00 0.00 62 1011.6
20260506031131 70 141 0.9 0.0 0.00 0.00 0.00 61 1011.6
20260506031034 70 168 0.9 0.0 0.00 0.00 0.00 61 1011.6
20260506030954 70 119 0.9 0.0 0.00 0.00 0.00 61 1011.6
20260506030835 70 147 0.9 0.0 0.00 0.00 0.00 61 1011.6
20260506030736 70 146 0.9 0.0 0.00 0.00 0.00 61 1011.6
20260506030622 70 157 0.9 0.0 0.00 0.00 0.00 61 1011.6
20260506030528 70 172 0.9 0.0 0.00 0.00 0.00 61 1011.6
20260506030426 70 141 0.9 0.0 0.00 0.00 0.00 61 1011.6
20260506030351 70 141 0.9 0.0 0.00 0.00 0.00 61 1011.6
20260506030236 70 137 0.9 0.0 0.00 0.00 0.00 61 1011.6
20260506030157 70 161 0.9 0.0 0.00 0.00 0.00 61 1011.6
20260506030039 70 148 0.9 0.0 0.00 0.00 0.00 61 1011.6
20260506025925 70 212 0.9 0.0 0.00 0.00 0.00 60 1011.6
20260506025729 70 162 0.9 0.0 0.00 0.00 0.00 61 1011.6
20260506025627 70 176 0.9 0.0 0.00 0.00 0.00 60 1011.6
20260506025529 70 143 0.9 0.0 0.00 0.00 0.00 60 1011.6
20260506025426 70 145 0.9 0.0 0.00 0.00 0.00 60 1011.6
20260506025347 70 145 0.9 0.0 0.00 0.00 0.00 60 1011.6
20260506025249 70 151 0.9 0.0 0.00 0.00 0.00 60 1011.6
20260506025130 70 176 0.9 0.0 0.00 0.00 0.00 60 1011.6
20260506025032 70 178 0.9 0.0 0.00 0.00 0.00 60 1011.6
20260506024933 70 147 0.9 0.0 0.00 0.00 0.00 60 1011.6
20260506024851 70 145 0.9 0.0 0.00 0.00 0.00 60 1011.6
20260506024736 70 146 0.9 0.0 0.00 0.00 0.00 60 1011.6
20260506024635 70 133 1.7 0.0 0.00 0.00 0.00 60 1011.6
20260506024541 70 190 1.7 0.0 0.00 0.00 0.00 60 1011.6
20260506024437 70 157 1.7 0.0 0.00 0.00 0.00 60 1011.6
20260506024339 70 180 1.7 0.0 0.00 0.00 0.00 60 1011.6
20260506024240 70 148 1.7 0.0 0.00 0.00 0.00 60 1011.6
20260506024201 70 159 1.7 0.0 0.00 0.00 0.00 60 1011.6
20260506024042 70 176 1.7 0.0 0.00 0.00 0.00 60 1011.6
20260506024004 70 162 1.7 0.0 0.00 0.00 0.00 60 1011.6
20260506023824 70 165 0.9 0.0 0.00 0.00 0.00 59 1011.6
20260506023746 70 161 0.9 0.0 0.00 0.00 0.00 59 1011.6
20260506023625 70 170 0.9 0.0 0.00 0.00 0.00 59 1011.6
20260506023530 70 240 0.9 0.0 0.00 0.00 0.00 59 1011.6
20260506023447 70 215 0.9 0.0 0.00 0.00 0.00 59 1011.6
20260506023332 70 147 0.9 0.0 0.00 0.00 0.00 59 1011.6
20260506023232 70 142 0.9 0.0 0.00 0.00 0.00 59 1011.6
20260506023137 70 176 0.9 0.0 0.00 0.00 0.00 59 1011.6
20260506023036 70 185 0.9 0.0 0.00 0.00 0.00 59 1011.6
20260506022937 70 136 0.9 0.0 0.00 0.00 0.00 59 1011.6
20260506022834 70 133 0.9 0.0 0.00 0.00 0.00 59 1011.6
20260506022737 71 147 0.9 0.0 0.00 0.00 0.00 59 1011.6
20260506022635 71 157 0.9 0.0 0.00 0.00 0.00 59 1011.6
20260506022538 71 195 0.9 0.0 0.00 0.00 0.00 59 1011.6
20260506022443 71 148 1.7 0.0 0.00 0.00 0.00 59 1011.6
20260506022344 71 148 1.7 0.0 0.00 0.00 0.00 59 1011.6
20260506022225 71 157 1.7 0.0 0.00 0.00 0.00 59 1011.6
20260506022127 71 201 1.7 0.0 0.00 0.00 0.00 59 1011.6
20260506022025 71 149 0.9 0.0 0.00 0.00 0.00 59 1011.6
20260506021929 71 180 0.9 0.0 0.00 0.00 0.00 59 1011.6
20260506021831 71 182 0.9 0.0 0.00 0.00 0.00 59 1011.6
20260506021734 71 174 0.9 0.0 0.00 0.00 0.00 59 1011.6
20260506021631 71 178 0.9 0.0 0.00 0.00 0.00 59 1011.6
20260506021533 71 178 0.9 0.0 0.00 0.00 0.00 59 1011.6
20260506021430 71 157 0.9 0.0 0.00 0.00 0.00 59 1011.6
20260506021333 71 126 0.9 0.0 0.00 0.00 0.00 59 1011.6
20260506021251 71 171 0.9 0.0 0.00 0.00 0.00 59 1011.6
20260506021135 71 151 0.9 0.0 0.00 0.00 0.00 59 1011.6
20260506021058 71 151 1.7 0.0 0.00 0.00 0.00 59 1011.6
20260506020937 71 159 1.7 0.0 0.00 0.00 0.00 58 1011.6
20260506020839 71 138 1.7 0.0 0.00 0.00 0.00 58 1011.6
20260506020744 71 143 1.7 0.0 0.00 0.00 0.00 59 1011.6
20260506020624 71 140 1.7 0.0 0.00 0.00 0.00 58 1011.6
20260506020531 71 147 1.7 0.0 0.00 0.00 0.00 58 1011.6
20260506020426 71 156 1.7 0.0 0.00 0.00 0.00 58 1011.6
20260506020328 71 165 0.9 0.0 0.00 0.00 0.00 58 1011.6
20260506020227 71 148 0.9 0.0 0.00 0.00 0.00 58 1011.6
20260506020127 71 169 1.7 0.0 0.00 0.00 0.00 58 1011.6
20260506020030 71 152 0.9 0.0 0.00 0.00 0.00 58 1011.6
20260506015930 71 155 0.9 0.0 0.00 0.00 0.00 58 1011.6
20260506015832 72 143 1.7 0.0 0.00 0.00 0.00 58 1011.4
20260506015754 72 160 1.7 0.0 0.00 0.00 0.00 58 1011.4
20260506015655 72 174 1.7 0.0 0.00 0.00 0.00 58 1011.4
20260506015536 72 135 1.7 0.0 0.00 0.00 0.00 57 1011.4
20260506015453 72 159 1.7 0.0 0.00 0.00 0.00 57 1011.4
20260506015354 72 158 1.7 0.0 0.00 0.00 0.00 57 1011.4
20260506015232 72 138 1.7 0.0 0.00 0.00 0.00 57 1011.4
20260506015136 72 136 0.9 0.0 0.00 0.00 0.00 57 1011.4
20260506015042 72 123 0.9 0.0 0.00 0.00 0.00 57 1011.4
20260506014942 72 122 0.9 0.0 0.00 0.00 0.00 56 1011.4
20260506014841 72 136 0.9 0.0 0.00 0.00 0.00 56 1011.4
20260506014741 72 136 0.9 0.0 0.00 0.00 0.00 56 1011.4
20260506014639 72 135 0.9 0.0 0.00 0.00 0.00 56 1011.4
20260506014541 72 140 0.9 0.0 0.00 0.00 0.00 56 1011.4
20260506014425 72 144 0.9 0.0 0.00 0.00 0.00 56 1011.4
20260506014327 73 149 0.9 0.0 0.00 0.00 0.00 56 1011.1
20260506014227 73 131 0.9 0.0 0.00 0.00 0.00 56 1011.1
20260506014128 73 159 0.9 0.0 0.00 0.00 0.00 55 1011.1
20260506014047 73 159 0.9 0.0 0.00 0.00 0.00 55 1011.1
20260506013950 73 140 0.9 0.0 0.00 0.00 0.00 55 1011.1
20260506013830 73 169 0.9 0.0 0.00 0.00 0.00 55 1011.1
20260506013732 73 161 0.9 0.0 0.00 0.00 0.00 55 1011.1
20260506013653 73 155 1.7 0.0 0.00 0.00 0.00 55 1011.1
20260506013533 73 149 1.7 0.0 0.00 0.00 0.00 55 1011.1
20260506013431 73 174 1.7 0.0 0.00 0.00 0.00 55 1011.1
20260506013333 73 132 1.7 0.0 0.00 0.00 0.00 55 1011.1
20260506013231 73 164 1.7 0.0 0.00 0.00 0.00 55 1011.1
20260506013137 73 247 1.7 0.0 0.00 0.00 0.00 54 1011.1
20260506013034 73 184 1.7 0.0 0.00 0.00 0.00 54 1011.1
20260506012939 73 146 1.7 0.0 0.00 0.00 0.00 54 1011.1
20260506012837 73 146 1.7 0.0 0.00 0.00 0.00 54 1011.0
20260506012738 73 188 1.7 0.0 0.00 0.00 0.00 54 1011.0
20260506012637 73 138 1.7 0.0 0.00 0.00 0.00 54 1011.0
20260506012539 73 254 1.7 0.0 0.00 0.00 0.00 54 1011.0
20260506012455 73 159 1.7 0.0 0.00 0.00 0.00 54 1011.0
20260506012335 73 178 1.7 0.0 0.00 0.00 0.00 54 1011.0
20260506012237 73 170 2.6 0.0 0.00 0.00 0.00 54 1011.0
20260506012139 73 140 2.6 0.0 0.00 0.00 0.00 54 1011.0
20260506012040 73 177 2.6 0.0 0.00 0.00 0.00 54 1011.0
20260506012000 74 205 2.6 0.0 0.00 0.00 0.00 54 1011.0
20260506011840 73 119 2.6 0.0 0.00 0.00 0.00 54 1011.0
20260506011742 74 170 2.6 0.0 0.00 0.00 0.00 53 1011.0
20260506011623 74 177 2.6 0.0 0.00 0.00 0.00 53 1011.0
20260506011530 74 156 3.5 0.0 0.00 0.00 0.00 53 1011.0
20260506011430 74 163 3.5 0.0 0.00 0.00 0.00 53 1011.0
20260506011331 74 120 3.5 0.0 0.00 0.00 0.00 53 1011.0
20260506011230 74 143 3.5 0.0 0.00 0.00 0.00 53 1011.0
20260506011152 74 166 3.5 0.0 0.00 0.00 0.00 53 1011.0
20260506011050 74 197 3.5 0.0 0.00 0.00 0.00 52 1011.0
20260506010929 74 159 2.6 0.0 0.00 0.00 0.00 52 1011.0
20260506010833 74 157 2.6 0.0 0.00 0.00 0.00 52 1011.0
20260506010736 74 163 2.6 0.0 0.00 0.00 0.00 52 1011.0
20260506010654 74 211 2.6 0.0 0.00 0.00 0.00 52 1011.0
20260506010538 74 199 2.6 0.0 0.00 0.00 0.00 52 1011.0
20260506010459 74 184 2.6 0.0 0.00 0.00 0.00 52 1011.0
20260506010338 74 181 2.6 0.0 0.00 0.00 0.00 51 1011.0
20260506010300 74 170 2.6 0.0 0.00 0.00 0.00 51 1011.0
20260506010125 74 157 2.6 0.0 0.00 0.00 0.00 51 1011.0
20260506010026 74 195 2.6 0.0 0.00 0.00 0.00 51 1011.0
20260506005926 74 70 3.5 0.0 0.00 0.00 0.00 51 1010.9
20260506005828 74 81 3.5 0.0 0.00 0.00 0.00 51 1010.6
20260506005729 74 174 3.5 0.0 0.00 0.00 0.00 50 1010.6
20260506005630 75 149 2.6 0.0 0.00 0.00 0.00 50 1010.6
20260506005555 75 191 2.6 0.0 0.00 0.00 0.00 50 1010.6
20260506005434 75 177 2.6 0.0 0.00 0.00 0.00 50 1010.6
20260506005336 75 181 2.6 0.0 0.00 0.00 0.00 49 1010.6
20260506005259 75 153 2.6 0.0 0.00 0.00 0.00 49 1010.6
20260506005138 75 209 2.6 0.0 0.00 0.00 0.00 49 1010.6
20260506005037 75 171 2.6 0.0 0.00 0.00 0.00 49 1010.6
20260506004941 75 132 3.5 0.0 0.00 0.00 0.00 49 1010.6
20260506004840 75 173 3.5 0.0 0.00 0.00 0.00 49 1010.6
20260506004745 75 163 3.5 0.0 0.00 0.00 0.00 48 1010.6
20260506004642 75 182 3.5 0.0 0.00 0.00 0.00 48 1010.6
20260506004543 75 178 4.3 0.0 0.00 0.00 0.00 48 1010.6
20260506004442 75 165 4.3 0.0 0.00 0.00 0.00 48 1010.6
20260506004343 75 162 4.3 0.0 0.00 0.00 0.00 48 1010.5
20260506004221 75 129 4.3 0.0 0.00 0.00 0.00 48 1010.5
20260506004129 75 147 4.3 0.0 0.00 0.00 0.00 48 1010.5
20260506004028 75 202 4.3 0.0 0.00 0.00 0.00 47 1010.5
20260506003928 76 158 3.5 0.0 0.00 0.00 0.00 47 1010.5
20260506003848 76 117 4.3 0.0 0.00 0.00 0.00 47 1010.5
20260506003729 76 189 4.3 0.0 0.00 0.00 0.00 47 1010.5
20260506003627 76 165 4.3 0.0 0.00 0.00 0.00 47 1010.5
20260506003533 76 184 4.3 0.0 0.00 0.00 0.00 47 1010.5
20260506003449 76 172 4.3 0.0 0.00 0.00 0.00 46 1010.5
20260506003333 76 148 4.3 0.0 0.00 0.00 0.00 46 1010.5
20260506003256 76 137 4.3 0.0 0.00 0.00 0.00 46 1010.5
20260506003136 76 168 4.3 0.0 0.00 0.00 0.00 46 1010.5
20260506003039 76 203 5.2 0.0 0.00 0.00 0.00 46 1010.5
20260506002942 76 169 5.2 0.0 0.00 0.00 0.00 45 1010.5
20260506002841 76 170 5.2 0.0 0.00 0.00 0.00 45 1010.2
20260506002742 76 163 4.3 0.0 0.00 0.00 0.00 45 1010.2
20260506002625 77 162 3.5 0.0 0.00 0.00 0.00 44 1010.2
20260506002547 77 222 3.5 0.0 0.00 0.00 0.00 44 1010.2
20260506002426 77 177 2.6 0.0 0.00 0.00 0.00 44 1010.2
20260506002327 77 159 2.6 0.0 0.00 0.00 0.00 43 1010.2
20260506002229 77 199 3.5 0.0 0.00 0.00 0.00 43 1010.2
20260506002130 77 179 3.5 0.0 0.00 0.00 0.00 43 1010.2
20260506002036 77 178 2.6 0.0 0.00 0.00 0.00 43 1010.2
20260506001956 77 156 2.6 0.0 0.00 0.00 0.00 43 1010.2
20260506001837 77 155 3.5 0.0 0.00 0.00 0.00 42 1010.2
20260506001740 77 149 3.5 0.0 0.00 0.00 0.00 42 1010.2
20260506001638 77 146 3.5 0.0 0.00 0.00 0.00 42 1010.2
20260506001540 77 207 4.3 0.0 0.00 0.00 0.00 42 1010.2
20260506001436 78 158 4.3 0.0 0.00 0.00 0.00 42 1010.2
20260506001341 78 163 3.5 0.0 0.00 0.00 0.00 41 1010.0
20260506001242 78 162 3.5 0.0 0.00 0.00 0.00 41 1010.0
20260506001124 78 168 3.5 0.0 0.00 0.00 0.00 41 1010.0
20260506001027 78 142 2.6 0.0 0.00 0.00 0.00 41 1010.0
20260506000931 78 150 2.6 0.0 0.00 0.00 0.00 41 1010.0
20260506000849 78 199 2.6 0.0 0.00 0.00 0.00 41 1010.0
20260506000733 78 145 2.6 0.0 0.00 0.00 0.00 41 1010.0
20260506000639 78 156 1.7 0.0 0.00 0.00 0.00 41 1010.0
20260506000545 78 161 1.7 0.0 0.00 0.00 0.00 40 1010.0
20260506000441 78 116 1.7 0.0 0.00 0.00 0.00 40 1010.0
20260506000346 78 172 2.6 0.0 0.00 0.00 0.00 40 1010.0
20260506000243 78 167 2.6 0.0 0.00 0.00 0.00 40 1010.0
20260506000143 78 149 2.6 0.0 0.00 0.00 0.00 40 1010.0
20260506000027 78 170 3.5 0.0 0.00 0.00 0.00 40 1010.0
20260505235947 78 199 3.5 0.0 0.00 0.00 0.00 40 1010.0
20260505235829 78 134 3.5 0.0 0.00 0.00 0.00 40 1010.0
20260505235750 78 233 3.5 0.0 0.00 0.00 0.00 40 1010.0
20260505235631 79 180 3.5 0.0 0.00 0.00 0.00 40 1010.0
20260505235531 79 169 4.3 0.0 0.00 0.00 0.00 40 1010.0
20260505235429 79 178 4.3 0.0 0.00 0.00 0.00 40 1010.0
20260505235335 79 155 4.3 0.0 0.00 0.00 0.00 40 1010.0
20260505235236 79 172 5.2 0.0 0.00 0.00 0.00 40 1010.0
20260505235159 79 169 4.3 0.0 0.00 0.00 0.00 40 1010.0
20260505235037 79 178 4.3 0.0 0.00 0.00 0.00 40 1010.0
20260505234939 79 154 5.2 0.0 0.00 0.00 0.00 40 1010.0
20260505234855 79 163 5.2 0.0 0.00 0.00 0.00 40 1010.0
20260505234737 79 195 5.2 0.0 0.00 0.00 0.00 40 1010.0
20260505234659 79 169 5.2 0.0 0.00 0.00 0.00 39 1010.0
20260505234544 79 202 5.2 0.0 0.00 0.00 0.00 39 1010.0
20260505234443 79 198 5.2 0.0 0.00 0.00 0.00 39 1010.0
20260505234345 79 180 5.2 0.0 0.00 0.00 0.00 39 1009.9
20260505234243 79 236 5.2 0.0 0.00 0.00 0.00 39 1009.9
20260505234145 79 178 5.2 0.0 0.00 0.00 0.00 39 1009.9
20260505234042 79 178 5.2 0.0 0.00 0.00 0.00 39 1009.9
20260505233926 79 219 5.2 0.0 0.00 0.00 0.00 39 1009.9
20260505233827 79 172 5.2 0.0 0.00 0.00 0.00 39 1009.9
20260505233730 79 191 5.2 0.0 0.00 0.00 0.00 39 1009.9
20260505233627 79 180 5.2 0.0 0.00 0.00 0.00 39 1009.9
20260505233533 79 195 5.2 0.0 0.00 0.00 0.00 39 1009.9
20260505233430 79 178 5.2 0.0 0.00 0.00 0.00 39 1009.9
20260505233332 79 233 4.3 0.0 0.00 0.00 0.00 39 1009.9
20260505233233 79 209 4.3 0.0 0.00 0.00 0.00 39 1009.9
20260505233134 79 285 4.3 0.0 0.00 0.00 0.00 39 1009.9
20260505233033 80 170 4.3 0.0 0.00 0.00 0.00 39 1009.9
20260505232932 80 174 4.3 0.0 0.00 0.00 0.00 39 1009.9
20260505232829 80 188 4.3 0.0 0.00 0.00 0.00 39 1009.6
20260505232731 80 242 4.3 0.0 0.00 0.00 0.00 39 1009.6
20260505232649 80 159 3.5 0.0 0.00 0.00 0.00 39 1009.6
20260505232538 80 172 4.3 0.0 0.00 0.00 0.00 39 1009.6
20260505232434 80 193 4.3 0.0 0.00 0.00 0.00 38 1009.6
20260505232335 80 170 4.3 0.0 0.00 0.00 0.00 38 1009.6
20260505232257 80 257 4.3 0.0 0.00 0.00 0.00 38 1009.6
20260505232137 80 178 4.3 0.0 0.00 0.00 0.00 38 1009.6
20260505232034 80 196 4.3 0.0 0.00 0.00 0.00 38 1009.6
20260505231954 80 184 3.5 0.0 0.00 0.00 0.00 38 1009.6
20260505231836 80 181 3.5 0.0 0.00 0.00 0.00 38 1009.6
20260505231736 80 205 3.5 0.0 0.00 0.00 0.00 38 1009.6
20260505231635 80 190 4.3 0.0 0.00 0.00 0.00 38 1009.6
20260505231539 80 150 3.5 0.0 0.00 0.00 0.00 38 1009.6
20260505231436 80 172 3.5 0.0 0.00 0.00 0.00 38 1009.6
20260505231339 80 182 4.3 0.0 0.00 0.00 0.00 38 1009.5
20260505231236 81 188 5.2 0.0 0.00 0.00 0.00 38 1009.5
20260505231142 81 186 4.3 0.0 0.00 0.00 0.00 37 1009.5
20260505231039 81 181 4.3 0.0 0.00 0.00 0.00 37 1009.5
20260505230939 81 117 4.3 0.0 0.00 0.00 0.00 37 1009.5
20260505230839 81 187 4.3 0.0 0.00 0.00 0.00 37 1009.5
20260505230741 81 163 4.3 0.0 0.00 0.00 0.00 37 1009.5
20260505230639 81 214 4.3 0.0 0.00 0.00 0.00 37 1009.5
20260505230547 81 176 4.3 0.0 0.00 0.00 0.00 36 1009.5
20260505230423 81 186 4.3 0.0 0.00 0.00 0.00 36 1009.5
20260505230348 81 205 4.3 0.0 0.00 0.00 0.00 36 1009.5
20260505230249 82 208 4.3 0.0 0.00 0.00 0.00 36 1009.5
20260505230129 82 197 4.3 0.0 0.00 0.00 0.00 35 1009.5
20260505230028 82 166 5.2 0.0 0.00 0.00 0.00 35 1009.5
20260505225928 82 195 5.2 0.0 0.00 0.00 0.00 35 1009.5
20260505225830 82 180 5.2 0.0 0.00 0.00 0.00 35 1009.4
20260505225732 82 201 5.2 0.0 0.00 0.00 0.00 35 1009.4
20260505225633 82 194 5.2 0.0 0.00 0.00 0.00 35 1009.4
20260505225557 82 222 4.3 0.0 0.00 0.00 0.00 34 1009.4
20260505225435 82 153 5.2 0.0 0.00 0.00 0.00 34 1009.4
20260505225336 82 186 4.3 0.0 0.00 0.00 0.00 34 1009.4
20260505225254 82 276 3.5 0.0 0.00 0.00 0.00 34 1009.4
20260505225134 82 263 4.3 0.0 0.00 0.00 0.00 34 1009.4
20260505225036 82 241 4.3 0.0 0.00 0.00 0.00 33 1009.4
20260505224941 82 203 3.5 0.0 0.00 0.00 0.00 33 1009.4
20260505224838 82 201 4.3 0.0 0.00 0.00 0.00 33 1009.4
20260505224739 82 201 4.3 0.0 0.00 0.00 0.00 33 1009.4
20260505224638 82 217 5.2 0.0 0.00 0.00 0.00 33 1009.4
20260505224543 82 176 5.2 0.0 0.00 0.00 0.00 33 1009.4
20260505224424 82 188 5.2 0.0 0.00 0.00 0.00 33 1009.4
20260505224330 82 160 5.2 0.0 0.00 0.00 0.00 33 1009.3
20260505224228 82 167 5.2 0.0 0.00 0.00 0.00 32 1009.3
20260505224130 82 182 6.1 0.0 0.00 0.00 0.00 32 1009.3
20260505224028 82 211 6.1 0.0 0.00 0.00 0.00 32 1009.3
20260505223949 82 173 6.1 0.0 0.00 0.00 0.00 32 1009.3
20260505223828 82 182 6.1 0.0 0.00 0.00 0.00 32 1009.3
20260505223730 82 197 5.2 0.0 0.00 0.00 0.00 32 1009.3
20260505223633 82 215 5.2 0.0 0.00 0.00 0.00 32 1009.3
20260505223533 82 207 5.2 0.0 0.00 0.00 0.00 31 1009.3
20260505223435 82 190 6.1 0.0 0.00 0.00 0.00 31 1009.3
20260505223339 82 192 6.1 0.0 0.00 0.00 0.00 31 1009.3
20260505223240 82 281 5.2 0.0 0.00 0.00 0.00 31 1009.3
20260505223203 82 138 5.2 0.0 0.00 0.00 0.00 31 1009.3
20260505223104 82 228 5.2 0.0 0.00 0.00 0.00 31 1009.3
20260505222929 82 182 5.2 0.0 0.00 0.00 0.00 31 1009.3
20260505222846 82 175 6.1 0.0 0.00 0.00 0.00 31 1009.3
20260505222747 82 54 6.1 0.0 0.00 0.00 0.00 31 1009.3
20260505222624 82 126 7.0 0.0 0.00 0.00 0.00 30 1009.3
20260505222548 82 180 7.0 0.0 0.00 0.00 0.00 30 1009.3
20260505222425 82 177 7.0 0.0 0.00 0.00 0.00 31 1009.3
20260505222327 82 198 7.0 0.0 0.00 0.00 0.00 31 1009.3
20260505222231 82 162 7.8 0.0 0.00 0.00 0.00 30 1009.3
20260505222131 82 248 7.0 0.0 0.00 0.00 0.00 31 1009.3
20260505222029 82 217 7.0 0.0 0.00 0.00 0.00 30 1009.3
20260505221929 82 155 7.0 0.0 0.00 0.00 0.00 30 1009.3
20260505221847 82 190 7.0 0.0 0.00 0.00 0.00 31 1009.3
20260505221728 82 190 6.1 0.0 0.00 0.00 0.00 30 1009.3
20260505221626 82 192 5.2 0.0 0.00 0.00 0.00 31 1009.3
20260505221534 82 197 4.3 0.0 0.00 0.00 0.00 30 1009.3
20260505221433 82 189 4.3 0.0 0.00 0.00 0.00 31 1009.3
20260505221333 82 266 4.3 0.0 0.00 0.00 0.00 31 1009.2
20260505221234 82 163 3.5 0.0 0.00 0.00 0.00 30 1009.2
20260505221155 82 117 4.3 0.0 0.00 0.00 0.00 30 1009.2
20260505221032 82 211 4.3 0.0 0.00 0.00 0.00 30 1009.2
20260505220937 82 171 5.2 0.0 0.00 0.00 0.00 30 1009.2
20260505220842 82 236 5.2 0.0 0.00 0.00 0.00 30 1009.2
20260505220803 82 186 5.2 0.0 0.00 0.00 0.00 30 1009.2
20260505220643 82 168 6.1 0.0 0.00 0.00 0.00 30 1009.2
20260505220556 83 198 6.1 0.0 0.00 0.00 0.00 30 1009.2
20260505220439 83 168 6.1 0.0 0.00 0.00 0.00 29 1009.2
20260505220359 83 202 7.0 0.0 0.00 0.00 0.00 29 1009.2
20260505220237 83 219 7.0 0.0 0.00 0.00 0.00 29 1009.2
20260505220143 83 185 7.0 0.0 0.00 0.00 0.00 29 1009.2
20260505220042 83 168 7.0 0.0 0.00 0.00 0.00 29 1009.2
20260505215942 83 197 7.0 0.0 0.00 0.00 0.00 29 1009.2
20260505215840 83 138 7.8 0.0 0.00 0.00 0.00 29 1009.1
20260505215741 83 183 8.7 0.0 0.00 0.00 0.00 29 1009.1
20260505215639 83 201 7.8 0.0 0.00 0.00 0.00 28 1009.1
20260505215541 83 163 8.7 0.0 0.00 0.00 0.00 28 1009.1
20260505215424 83 113 8.7 0.0 0.00 0.00 0.00 28 1009.1
20260505215346 83 211 8.7 0.0 0.00 0.00 0.00 28 1009.1
20260505215224 83 211 8.7 0.0 0.00 0.00 0.00 28 1009.1
20260505215125 83 172 9.6 0.0 0.00 0.00 0.00 28 1009.1
20260505215048 83 236 8.7 0.0 0.00 0.00 0.00 28 1009.1
20260505215007 83 195 9.6 0.0 0.00 0.00 0.00 28 1009.1
20260505214827 83 182 9.6 0.0 0.00 0.00 0.00 28 1009.1
20260505214728 83 180 8.7 0.0 0.00 0.00 0.00 28 1009.1
20260505214626 83 218 9.6 0.0 0.00 0.00 0.00 28 1009.1
20260505214528 83 215 8.7 0.0 0.00 0.00 0.00 28 1009.1
20260505214428 83 200 8.7 0.0 0.00 0.00 0.00 27 1009.1
20260505214329 83 257 9.6 0.0 0.00 0.00 0.00 27 1009.1
20260505214247 83 178 9.6 0.0 0.00 0.00 0.00 27 1009.1
20260505214131 83 345 9.6 0.0 0.00 0.00 0.00 27 1009.1
20260505214050 83 194 8.7 0.0 0.00 0.00 0.00 28 1009.1
20260505213933 83 198 7.8 0.0 0.00 0.00 0.00 28 1009.1
20260505213831 83 186 7.8 0.0 0.00 0.00 0.00 28 1009.1
20260505213735 83 217 7.8 0.0 0.00 0.00 0.00 27 1009.1
20260505213635 83 186 7.0 0.0 0.00 0.00 0.00 27 1009.1
20260505213558 83 206 6.1 0.0 0.00 0.00 0.00 27 1009.1
20260505213437 83 196 6.1 0.0 0.00 0.00 0.00 27 1009.1
20260505213342 84 251 6.1 0.0 0.00 0.00 0.00 27 1009.1
20260505213243 84 186 6.1 0.0 0.00 0.00 0.00 27 1009.1
20260505213125 84 186 6.1 0.0 0.00 0.00 0.00 27 1009.1
20260505213026 84 177 7.0 0.0 0.00 0.00 0.00 27 1009.1
20260505212946 84 212 7.0 0.0 0.00 0.00 0.00 27 1009.1
20260505212844 84 215 7.0 0.0 0.00 0.00 0.00 27 1009.0
20260505212730 84 178 7.0 0.0 0.00 0.00 0.00 28 1009.0
20260505212649 84 206 7.8 0.0 0.00 0.00 0.00 27 1009.0
20260505212530 84 177 8.7 0.0 0.00 0.00 0.00 27 1009.0
20260505212447 84 229 8.7 0.0 0.00 0.00 0.00 27 1009.0
20260505212328 84 194 9.6 0.0 0.00 0.00 0.00 26 1009.0
20260505212226 84 253 9.6 0.0 0.00 0.00 0.00 26 1009.0
20260505212127 84 234 9.6 0.0 0.00 0.00 0.00 27 1009.0
20260505212034 84 205 9.6 0.0 0.00 0.00 0.00 26 1009.0
20260505211936 84 70 9.6 0.0 0.00 0.00 0.00 26 1009.0
20260505211859 84 170 9.6 0.0 0.00 0.00 0.00 26 1009.0
20260505211739 84 222 8.7 0.0 0.00 0.00 0.00 26 1009.0
20260505211636 84 266 9.6 0.0 0.00 0.00 0.00 26 1009.0
20260505211539 84 232 9.6 0.0 0.00 0.00 0.00 27 1009.0
20260505211503 84 188 9.6 0.0 0.00 0.00 0.00 27 1009.0
20260505211404 84 226 8.7 0.0 0.00 0.00 0.00 27 1008.7
20260505211229 84 161 8.7 0.0 0.00 0.00 0.00 27 1008.7
20260505211130 84 215 8.7 0.0 0.00 0.00 0.00 27 1008.7
20260505211032 84 239 8.7 0.0 0.00 0.00 0.00 27 1008.7
20260505210933 84 253 7.8 0.0 0.00 0.00 0.00 27 1008.7
20260505210834 84 153 7.0 0.0 0.00 0.00 0.00 27 1008.7
20260505210734 84 184 7.0 0.0 0.00 0.00 0.00 26 1008.7
20260505210653 84 317 6.1 0.0 0.00 0.00 0.00 27 1008.7
20260505210538 84 126 6.1 0.0 0.00 0.00 0.00 27 1008.7
20260505210455 84 197 7.0 0.0 0.00 0.00 0.00 27 1008.7
20260505210354 84 221 7.0 0.0 0.00 0.00 0.00 27 1008.7
20260505210252 84 176 7.0 0.0 0.00 0.00 0.00 27 1008.7
20260505210131 84 213 7.8 0.0 0.00 0.00 0.00 28 1008.7
20260505210050 84 219 7.8 0.0 0.00 0.00 0.00 28 1008.7
20260505205931 84 240 8.7 0.0 0.00 0.00 0.00 27 1008.7
20260505205828 84 95 8.7 0.0 0.00 0.00 0.00 27 1008.7
20260505205734 84 199 9.6 0.0 0.00 0.00 0.00 27 1008.7
20260505205632 84 255 9.6 0.0 0.00 0.00 0.00 26 1008.7
20260505205534 84 190 8.7 0.0 0.00 0.00 0.00 26 1008.7
20260505205434 84 215 8.7 0.0 0.00 0.00 0.00 28 1008.7
20260505205355 84 220 7.8 0.0 0.00 0.00 0.00 28 1008.7
20260505205253 84 201 7.8 0.0 0.00 0.00 0.00 29 1008.7
20260505205133 84 167 7.0 0.0 0.00 0.00 0.00 29 1008.7
20260505205052 84 191 6.1 0.0 0.00 0.00 0.00 31 1008.7
20260505204936 84 103 7.0 0.0 0.00 0.00 0.00 32 1008.7
20260505204833 84 192 7.0 0.0 0.00 0.00 0.00 32 1008.7
20260505204755 84 182 6.1 0.0 0.00 0.00 0.00 32 1008.7
20260505204651 84 195 6.1 0.0 0.00 0.00 0.00 32 1008.7
20260505204532 84 90 6.1 0.0 0.00 0.00 0.00 31 1008.7
20260505204430 84 188 5.2 0.0 0.00 0.00 0.00 32 1008.7
20260505204351 84 187 5.2 0.0 0.00 0.00 0.00 32 1008.9
20260505204229 84 205 5.2 0.0 0.00 0.00 0.00 32 1008.9
20260505204151 84 132 5.2 0.0 0.00 0.00 0.00 32 1008.9
20260505204059 84 187 6.1 0.0 0.00 0.00 0.00 31 1008.9
20260505203937 84 210 6.1 0.0 0.00 0.00 0.00 31 1008.9
20260505203839 84 246 6.1 0.0 0.00 0.00 0.00 31 1008.9
20260505203740 84 277 6.1 0.0 0.00 0.00 0.00 30 1008.9
20260505203639 84 222 6.1 0.0 0.00 0.00 0.00 31 1008.9
20260505203544 84 182 7.0 0.0 0.00 0.00 0.00 31 1008.9
20260505203425 84 170 7.0 0.0 0.00 0.00 0.00 31 1008.9
20260505203326 84 276 7.0 0.0 0.00 0.00 0.00 32 1008.9
20260505203227 84 249 7.0 0.0 0.00 0.00 0.00 31 1008.9
20260505203128 84 158 7.0 0.0 0.00 0.00 0.00 31 1008.9
20260505203030 84 176 6.1 0.0 0.00 0.00 0.00 32 1008.9
20260505202950 84 167 7.0 0.0 0.00 0.00 0.00 32 1008.9
20260505202829 84 210 7.0 0.0 0.00 0.00 0.00 32 1009.0
20260505202734 84 217 7.0 0.0 0.00 0.00 0.00 32 1009.0
20260505202637 84 180 7.0 0.0 0.00 0.00 0.00 32 1009.0
20260505202539 84 191 7.0 0.0 0.00 0.00 0.00 32 1009.0
20260505202455 84 178 7.8 0.0 0.00 0.00 0.00 32 1009.0
20260505202336 84 189 7.8 0.0 0.00 0.00 0.00 32 1009.0
20260505202235 84 251 7.0 0.0 0.00 0.00 0.00 32 1009.0
20260505202137 84 274 7.8 0.0 0.00 0.00 0.00 32 1009.0
20260505202040 84 249 7.8 0.0 0.00 0.00 0.00 32 1009.0
20260505201941 84 197 7.8 0.0 0.00 0.00 0.00 32 1009.0
20260505201838 84 284 7.0 0.0 0.00 0.00 0.00 31 1009.0
20260505201739 84 187 6.1 0.0 0.00 0.00 0.00 31 1009.0
20260505201639 84 235 6.1 0.0 0.00 0.00 0.00 31 1009.0
20260505201541 84 194 5.2 0.0 0.00 0.00 0.00 32 1009.0
20260505201442 84 243 5.2 0.0 0.00 0.00 0.00 33 1009.0
20260505201407 84 232 5.2 0.0 0.00 0.00 0.00 33 1008.9
20260505201245 84 175 5.2 0.0 0.00 0.00 0.00 33 1008.9
20260505201126 84 216 5.2 0.0 0.00 0.00 0.00 33 1008.9
20260505201047 84 187 5.2 0.0 0.00 0.00 0.00 34 1008.9
20260505200926 84 199 5.2 0.0 0.00 0.00 0.00 34 1008.9
20260505200826 84 164 5.2 0.0 0.00 0.00 0.00 33 1008.9
20260505200729 84 199 5.2 0.0 0.00 0.00 0.00 34 1008.9
20260505200630 84 182 5.2 0.0 0.00 0.00 0.00 34 1008.9
20260505200532 84 219 6.1 0.0 0.00 0.00 0.00 34 1008.9
20260505200449 84 138 7.0 0.0 0.00 0.00 0.00 34 1008.9
20260505200330 84 169 7.0 0.0 0.00 0.00 0.00 34 1008.9
20260505200231 84 247 7.0 0.0 0.00 0.00 0.00 34 1008.9
20260505200132 84 195 7.0 0.0 0.00 0.00 0.00 34 1008.9
20260505200035 84 145 7.0 0.0 0.00 0.00 0.00 34 1008.9
20260505195938 84 217 7.0 0.0 0.00 0.00 0.00 34 1008.9
20260505195838 84 212 7.0 0.0 0.00 0.00 0.00 33 1009.1
20260505195740 84 276 7.0 0.0 0.00 0.00 0.00 33 1009.1
20260505195638 84 236 7.0 0.0 0.00 0.00 0.00 33 1009.1
20260505195539 84 198 7.0 0.0 0.00 0.00 0.00 33 1009.1
20260505195436 84 173 7.0 0.0 0.00 0.00 0.00 33 1009.1
20260505195321 84 232 7.0 0.0 0.00 0.00 0.00 33 1009.1
20260505195225 83 209 6.1 0.0 0.00 0.00 0.00 32 1009.1
20260505195126 83 215 6.1 0.0 0.00 0.00 0.00 32 1009.1
20260505195028 83 219 6.1 0.0 0.00 0.00 0.00 32 1009.1
20260505194929 83 230 7.0 0.0 0.00 0.00 0.00 32 1009.1
20260505194849 83 135 7.0 0.0 0.00 0.00 0.00 32 1009.1
20260505194752 83 317 7.0 0.0 0.00 0.00 0.00 31 1009.1
20260505194649 83 177 7.8 0.0 0.00 0.00 0.00 31 1009.1
20260505194535 83 279 7.0 0.0 0.00 0.00 0.00 31 1009.1
20260505194456 83 218 6.1 0.0 0.00 0.00 0.00 30 1009.1
20260505194337 83 184 7.0 0.0 0.00 0.00 0.00 31 1009.3
20260505194259 83 140 7.0 0.0 0.00 0.00 0.00 31 1009.3
20260505194140 83 240 7.0 0.0 0.00 0.00 0.00 31 1009.3
20260505194102 83 238 6.1 0.0 0.00 0.00 0.00 31 1009.3
20260505193941 83 222 6.1 0.0 0.00 0.00 0.00 31 1009.3
20260505193839 83 182 6.1 0.0 0.00 0.00 0.00 30 1009.3
20260505193728 83 230 5.2 0.0 0.00 0.00 0.00 30 1009.3
20260505193630 84 198 5.2 0.0 0.00 0.00 0.00 33 1009.3
20260505193536 84 187 5.2 0.0 0.00 0.00 0.00 33 1009.3
20260505193432 84 221 6.1 0.0 0.00 0.00 0.00 33 1009.3
20260505193334 84 209 6.1 0.0 0.00 0.00 0.00 34 1009.3
20260505193233 84 227 7.0 0.0 0.00 0.00 0.00 33 1009.3
20260505193154 84 183 6.1 0.0 0.00 0.00 0.00 33 1009.3
20260505193036 84 274 7.0 0.0 0.00 0.00 0.00 34 1009.3
20260505192936 84 191 7.0 0.0 0.00 0.00 0.00 33 1009.3
20260505192833 84 170 7.0 0.0 0.00 0.00 0.00 34 1009.5